Time,TemperatureF,DewpointF,PressureIn,WindDirection,WindDirectionDegrees,WindSpeedMPH,WindSpeedGustMPH,Humidity,HourlyPrecipIn,Conditions,Clouds,dailyrainin,SoftwareType,DateUTC
2013-09-11 00:00:00,76.9,69.5,30.00,South,181,0.0,3.0,78,0.00,,CLR,0.00,VWS V14.01,2013-09-11 05:00:00,
2013-09-11 00:01:00,76.9,69.5,30.00,South,181,0.0,0.0,78,0.00,,CLR,0.00,VWS V14.01,2013-09-11 05:01:00,
2013-09-11 00:02:00,76.9,69.5,30.00,South,181,0.0,0.0,78,0.00,,CLR,0.00,VWS V14.01,2013-09-11 05:02:00,
2013-09-11 00:04:00,76.9,69.5,30.00,South,181,0.0,1.0,78,0.00,,CLR,0.00,VWS V14.01,2013-09-11 05:04:00,
2013-09-11 00:05:00,76.7,69.7,30.00,SSW,192,0.0,2.0,79,0.00,,CLR,0.00,VWS V14.01,2013-09-11 05:05:00,
2013-09-11 00:06:00,76.7,69.7,30.00,SSW,192,0.0,2.0,79,0.00,,CLR,0.00,VWS V14.01,2013-09-11 05:06:00,
2013-09-11 00:07:00,76.7,69.7,30.00,SSW,192,0.0,2.0,79,0.00,,CLR,0.00,VWS V14.01,2013-09-11 05:07:00,
2013-09-11 00:09:00,76.7,69.7,30.00,SSE,166,0.0,2.0,79,0.00,,CLR,0.00,VWS V14.01,2013-09-11 05:09:00,
2013-09-11 00:10:00,76.7,69.7,30.00,SSE,167,0.0,2.0,79,0.00,,CLR,0.00,VWS V14.01,2013-09-11 05:10:00,
2013-09-11 00:11:00,76.6,69.6,30.00,SSE,167,0.0,2.0,79,0.00,,CLR,0.00,VWS V14.01,2013-09-11 05:11:00,
2013-09-11 00:12:00,76.6,69.6,30.00,SSE,167,0.0,2.0,79,0.00,,CLR,0.00,VWS V14.01,2013-09-11 05:12:00,
2013-09-11 00:14:00,76.6,69.6,30.00,SSE,167,0.0,2.0,79,0.00,,CLR,0.00,VWS V14.01,2013-09-11 05:14:00,
2013-09-11 00:15:00,76.6,70.0,30.00,SSE,167,0.0,2.0,80,0.00,,CLR,0.00,VWS V14.01,2013-09-11 05:15:00,
2013-09-11 00:16:00,76.4,69.8,30.00,SSE,167,0.0,2.0,80,0.00,,CLR,0.00,VWS V14.01,2013-09-11 05:16:00,
2013-09-11 00:17:00,76.4,69.8,30.00,SSE,167,0.0,2.0,80,0.00,,CLR,0.00,VWS V14.01,2013-09-11 05:17:00,
2013-09-11 00:18:00,76.4,69.8,30.00,SSE,167,0.0,2.0,80,0.00,,CLR,0.00,VWS V14.01,2013-09-11 05:18:00,
2013-09-11 00:19:00,76.4,69.8,30.00,SSE,167,0.0,2.0,80,0.00,,CLR,0.00,VWS V14.01,2013-09-11 05:19:00,
2013-09-11 00:20:00,76.4,69.8,30.00,SSE,167,0.0,2.0,80,0.00,,CLR,0.00,VWS V14.01,2013-09-11 05:20:00,
2013-09-11 00:21:00,76.4,69.8,30.00,SSE,167,0.0,2.0,80,0.00,,CLR,0.00,VWS V14.01,2013-09-11 05:21:00,
2013-09-11 00:22:00,76.4,69.8,30.00,SSE,167,0.0,2.0,80,0.00,,CLR,0.00,VWS V14.01,2013-09-11 05:22:00,
2013-09-11 00:24:00,76.4,69.8,30.00,SSE,167,0.0,2.0,80,0.00,,CLR,0.00,VWS V14.01,2013-09-11 05:24:00,
2013-09-11 00:25:00,76.4,69.8,30.00,SSE,167,0.0,2.0,80,0.00,,CLR,0.00,VWS V14.01,2013-09-11 05:25:00,
2013-09-11 00:26:00,76.4,69.8,30.00,SSE,167,0.0,2.0,80,0.00,,CLR,0.00,VWS V14.01,2013-09-11 05:26:00,
2013-09-11 00:27:00,76.4,69.8,30.00,SSE,167,0.0,2.0,80,0.00,,CLR,0.00,VWS V14.01,2013-09-11 05:27:00,
2013-09-11 00:29:00,76.4,69.8,30.00,SSE,167,0.0,2.0,80,0.00,,CLR,0.00,VWS V14.01,2013-09-11 05:29:00,
2013-09-11 00:30:00,76.2,69.6,30.00,SSE,167,0.0,2.0,80,0.00,,,0.00,VWS V14.01,2013-09-11 05:30:00,
2013-09-11 00:31:00,76.2,69.6,30.00,SSE,167,0.0,0.0,80,0.00,,CLR,0.00,VWS V14.01,2013-09-11 05:31:00,
2013-09-11 00:32:00,76.2,69.6,30.00,SSE,167,0.0,0.0,80,0.00,,CLR,0.00,VWS V14.01,2013-09-11 05:32:00,
2013-09-11 00:34:00,76.2,69.9,30.00,SSE,167,0.0,0.0,81,0.00,,CLR,0.00,VWS V14.01,2013-09-11 05:34:00,
2013-09-11 00:36:00,76.0,69.8,30.00,SSE,167,0.0,0.0,81,0.00,,CLR,0.00,VWS V14.01,2013-09-11 05:36:00,
2013-09-11 00:37:00,76.0,69.8,30.00,SSE,167,0.0,0.0,81,0.00,,CLR,0.00,VWS V14.01,2013-09-11 05:37:00,
2013-09-11 00:40:00,76.0,69.8,30.00,SSE,167,0.0,0.0,81,0.00,,CLR,0.00,VWS V14.01,2013-09-11 05:40:00,
2013-09-11 00:42:00,75.9,69.7,30.00,SSE,167,0.0,0.0,81,0.00,,CLR,0.00,VWS V14.01,2013-09-11 05:42:00,
2013-09-11 00:45:00,75.9,69.7,29.99,SSE,167,0.0,0.0,81,0.00,,CLR,0.00,VWS V14.01,2013-09-11 05:45:00,
2013-09-11 00:47:00,75.9,69.7,29.99,SSE,167,0.0,0.0,81,0.00,,CLR,0.00,VWS V14.01,2013-09-11 05:47:00,
2013-09-11 00:48:00,75.9,70.0,29.99,SSE,167,0.0,0.0,82,0.00,,CLR,0.00,VWS V14.01,2013-09-11 05:48:00,
2013-09-11 00:50:00,75.7,69.8,29.99,South,171,0.0,2.0,82,0.00,,CLR,0.00,VWS V14.01,2013-09-11 05:50:00,
2013-09-11 00:52:00,75.7,69.8,29.99,South,171,0.0,2.0,82,0.00,,CLR,0.00,VWS V14.01,2013-09-11 05:52:00,
2013-09-11 00:53:00,75.7,69.8,29.99,South,171,0.0,2.0,82,0.00,,CLR,0.00,VWS V14.01,2013-09-11 05:53:00,
2013-09-11 00:56:00,75.5,69.6,29.99,South,171,0.0,2.0,82,0.00,,CLR,0.00,VWS V14.01,2013-09-11 05:56:00,
2013-09-11 00:57:00,75.5,69.6,29.99,South,171,0.0,2.0,82,0.00,,CLR,0.00,VWS V14.01,2013-09-11 05:57:00,
2013-09-11 00:58:00,75.5,69.6,29.99,South,171,0.0,3.0,82,0.00,,CLR,0.00,VWS V14.01,2013-09-11 05:58:00,
2013-09-11 00:59:00,75.5,69.6,29.99,South,171,0.0,3.0,82,0.00,,CLR,0.00,VWS V14.01,2013-09-11 05:59:00,
2013-09-11 01:00:00,75.5,70.0,29.99,South,188,1.0,4.0,83,0.00,,,0.00,VWS V14.01,2013-09-11 06:00:00,
2013-09-11 01:01:00,75.5,70.0,29.99,SSW,193,5.0,5.0,83,0.00,,CLR,0.00,VWS V14.01,2013-09-11 06:01:00,
2013-09-11 01:02:00,75.5,70.0,29.99,South,186,0.0,5.0,83,0.00,,CLR,0.00,VWS V14.01,2013-09-11 06:02:00,
2013-09-11 01:04:00,75.5,70.0,29.99,South,186,0.0,5.0,83,0.00,,CLR,0.00,VWS V14.01,2013-09-11 06:04:00,
2013-09-11 01:06:00,75.5,70.0,29.99,South,186,0.0,5.0,83,0.00,,CLR,0.00,VWS V14.01,2013-09-11 06:06:00,
2013-09-11 01:07:00,75.5,70.0,29.99,SSE,157,0.0,5.0,83,0.00,,CLR,0.00,VWS V14.01,2013-09-11 06:07:00,
2013-09-11 01:08:00,75.5,70.0,29.99,SSE,157,0.0,5.0,83,0.00,,CLR,0.00,VWS V14.01,2013-09-11 06:08:00,
2013-09-11 01:09:00,75.5,70.0,29.99,SSE,157,0.0,5.0,83,0.00,,CLR,0.00,VWS V14.01,2013-09-11 06:09:00,
2013-09-11 01:11:00,75.5,70.0,29.99,SSE,157,0.0,5.0,83,0.00,,CLR,0.00,VWS V14.01,2013-09-11 06:11:00,
2013-09-11 01:12:00,75.3,69.8,29.99,SSE,157,0.0,5.0,83,0.00,,CLR,0.00,VWS V14.01,2013-09-11 06:12:00,
2013-09-11 01:13:00,75.3,69.8,29.99,SSE,157,0.0,5.0,83,0.00,,CLR,0.00,VWS V14.01,2013-09-11 06:13:00,
2013-09-11 01:14:00,75.3,69.8,29.99,SSE,157,0.0,5.0,83,0.00,,CLR,0.00,VWS V14.01,2013-09-11 06:14:00,
2013-09-11 01:15:00,75.3,69.8,29.99,South,173,1.0,5.0,83,0.00,,CLR,0.00,VWS V14.01,2013-09-11 06:15:00,
2013-09-11 01:16:00,75.5,70.0,29.99,South,173,0.0,5.0,83,0.00,,CLR,0.00,VWS V14.01,2013-09-11 06:16:00,
2013-09-11 01:17:00,75.5,70.0,29.99,South,173,0.0,5.0,83,0.00,,CLR,0.00,VWS V14.01,2013-09-11 06:17:00,
2013-09-11 01:18:00,75.5,70.0,29.99,South,173,0.0,5.0,83,0.00,,CLR,0.00,VWS V14.01,2013-09-11 06:18:00,
2013-09-11 01:19:00,75.5,70.0,29.99,South,173,0.0,5.0,83,0.00,,CLR,0.00,VWS V14.01,2013-09-11 06:19:00,
2013-09-11 01:21:00,75.5,69.6,29.99,South,173,0.0,5.0,82,0.00,,CLR,0.00,VWS V14.01,2013-09-11 06:21:00,
2013-09-11 01:22:00,75.5,69.6,29.99,South,173,0.0,5.0,82,0.00,,CLR,0.00,VWS V14.01,2013-09-11 06:22:00,
2013-09-11 01:23:00,75.5,69.6,29.99,South,173,0.0,5.0,82,0.00,,CLR,0.00,VWS V14.01,2013-09-11 06:23:00,
2013-09-11 01:24:00,75.5,69.6,29.99,South,173,0.0,5.0,82,0.00,,CLR,0.00,VWS V14.01,2013-09-11 06:24:00,
2013-09-11 01:27:00,75.5,69.6,29.99,South,173,0.0,5.0,82,0.00,,CLR,0.00,VWS V14.01,2013-09-11 06:27:00,
2013-09-11 01:28:00,75.5,69.6,29.99,South,173,0.0,5.0,82,0.00,,CLR,0.00,VWS V14.01,2013-09-11 06:28:00,
2013-09-11 01:30:00,75.5,69.6,29.99,South,173,0.0,5.0,82,0.00,,CLR,0.00,VWS V14.01,2013-09-11 06:30:00,
2013-09-11 01:32:00,75.5,69.6,29.99,South,173,0.0,0.0,82,0.00,,CLR,0.00,VWS V14.01,2013-09-11 06:32:00,
2013-09-11 01:33:00,75.5,69.6,29.99,South,173,0.0,0.0,82,0.00,,CLR,0.00,VWS V14.01,2013-09-11 06:33:00,
2013-09-11 01:35:00,75.3,69.4,29.99,South,173,0.0,1.0,82,0.00,,CLR,0.00,VWS V14.01,2013-09-11 06:35:00,
2013-09-11 01:37:00,75.3,69.4,29.99,South,173,0.0,1.0,82,0.00,,CLR,0.00,VWS V14.01,2013-09-11 06:37:00,
2013-09-11 01:38:00,75.3,69.4,29.99,South,173,0.0,1.0,82,0.00,,CLR,0.00,VWS V14.01,2013-09-11 06:38:00,
2013-09-11 01:40:00,75.3,69.4,29.99,South,173,0.0,1.0,82,0.00,,CLR,0.00,VWS V14.01,2013-09-11 06:40:00,
2013-09-11 01:42:00,75.3,69.4,29.99,South,173,0.0,2.0,82,0.00,,CLR,0.00,VWS V14.01,2013-09-11 06:42:00,
2013-09-11 01:43:00,75.2,69.3,29.99,South,173,1.0,3.0,82,0.00,,CLR,0.00,VWS V14.01,2013-09-11 06:43:00,
2013-09-11 01:44:00,75.2,69.3,29.99,South,173,0.0,3.0,82,0.00,,CLR,0.00,VWS V14.01,2013-09-11 06:44:00,
2013-09-11 01:45:00,75.2,69.3,29.99,South,173,0.0,3.0,82,0.00,,CLR,0.00,VWS V14.01,2013-09-11 06:45:00,
2013-09-11 01:47:00,75.2,69.3,29.99,South,173,0.0,3.0,82,0.00,,CLR,0.00,VWS V14.01,2013-09-11 06:47:00,
2013-09-11 01:48:00,75.2,69.3,29.99,South,173,0.0,3.0,82,0.00,,CLR,0.00,VWS V14.01,2013-09-11 06:48:00,
2013-09-11 01:49:00,75.2,69.3,29.99,South,173,0.0,3.0,82,0.00,,CLR,0.00,VWS V14.01,2013-09-11 06:49:00,
2013-09-11 01:50:00,75.2,69.3,29.99,South,173,1.0,3.0,82,0.00,,CLR,0.00,VWS V14.01,2013-09-11 06:50:00,
2013-09-11 01:52:00,75.2,69.3,29.99,South,173,0.0,3.0,82,0.00,,CLR,0.00,VWS V14.01,2013-09-11 06:52:00,
2013-09-11 01:53:00,75.2,69.3,29.99,South,173,0.0,3.0,82,0.00,,CLR,0.00,VWS V14.01,2013-09-11 06:53:00,
2013-09-11 01:55:00,75.2,69.3,29.99,South,173,0.0,3.0,82,0.00,,CLR,0.00,VWS V14.01,2013-09-11 06:55:00,
2013-09-11 01:57:00,75.2,69.3,29.99,South,173,0.0,3.0,82,0.00,,CLR,0.00,VWS V14.01,2013-09-11 06:57:00,
2013-09-11 01:59:00,75.0,69.1,29.99,South,173,0.0,3.0,82,0.00,,CLR,0.00,VWS V14.01,2013-09-11 06:59:00,
2013-09-11 02:00:00,75.0,69.1,30.00,South,173,2.0,3.0,82,0.00,,CLR,0.00,VWS V14.01,2013-09-11 07:00:00,
2013-09-11 02:01:00,75.0,69.1,30.00,South,173,0.0,3.0,82,0.00,,CLR,0.00,VWS V14.01,2013-09-11 07:01:00,
2013-09-11 02:02:00,75.0,69.5,30.00,South,176,0.0,3.0,83,0.00,,CLR,0.00,VWS V14.01,2013-09-11 07:02:00,
2013-09-11 02:04:00,75.0,69.5,30.00,South,176,0.0,3.0,83,0.00,,CLR,0.00,VWS V14.01,2013-09-11 07:04:00,
2013-09-11 02:05:00,75.0,69.5,30.00,South,176,0.0,3.0,83,0.00,,CLR,0.00,VWS V14.01,2013-09-11 07:05:00,
2013-09-11 02:06:00,75.0,69.5,30.00,South,176,0.0,3.0,83,0.00,,CLR,0.00,VWS V14.01,2013-09-11 07:06:00,
2013-09-11 02:07:00,74.8,69.3,30.00,South,176,0.0,3.0,83,0.00,,CLR,0.00,VWS V14.01,2013-09-11 07:07:00,
2013-09-11 02:09:00,74.8,69.3,30.00,South,176,0.0,3.0,83,0.00,,CLR,0.00,VWS V14.01,2013-09-11 07:09:00,
2013-09-11 02:10:00,74.8,69.3,30.00,South,176,0.0,3.0,83,0.00,,CLR,0.00,VWS V14.01,2013-09-11 07:10:00,
2013-09-11 02:11:00,74.8,69.3,30.00,South,176,0.0,3.0,83,0.00,,CLR,0.00,VWS V14.01,2013-09-11 07:11:00,
2013-09-11 02:12:00,74.8,69.3,30.00,South,176,0.0,3.0,83,0.00,,CLR,0.00,VWS V14.01,2013-09-11 07:12:00,
2013-09-11 02:14:00,74.6,69.4,30.00,South,175,0.0,3.0,84,0.00,,CLR,0.00,VWS V14.01,2013-09-11 07:14:00,
2013-09-11 02:16:00,74.6,69.4,30.00,South,175,0.0,3.0,84,0.00,,CLR,0.00,VWS V14.01,2013-09-11 07:16:00,
2013-09-11 02:17:00,74.6,69.4,30.00,South,175,0.0,3.0,84,0.00,,CLR,0.00,VWS V14.01,2013-09-11 07:17:00,
2013-09-11 02:19:00,74.6,69.4,30.00,South,175,0.0,3.0,84,0.00,,CLR,0.00,VWS V14.01,2013-09-11 07:19:00,
2013-09-11 02:21:00,74.5,69.3,30.00,South,175,0.0,3.0,84,0.00,,CLR,0.00,VWS V14.01,2013-09-11 07:21:00,
2013-09-11 02:22:00,74.5,69.3,30.00,South,175,0.0,3.0,84,0.00,,CLR,0.00,VWS V14.01,2013-09-11 07:22:00,
2013-09-11 02:24:00,74.5,69.3,30.00,South,175,0.0,3.0,84,0.00,,CLR,0.00,VWS V14.01,2013-09-11 07:24:00,
2013-09-11 02:27:00,74.5,69.3,30.00,South,175,0.0,3.0,84,0.00,,CLR,0.00,VWS V14.01,2013-09-11 07:27:00,
2013-09-11 02:30:00,74.5,69.3,30.00,South,175,0.0,3.0,84,0.00,,CLR,0.00,VWS V14.01,2013-09-11 07:30:00,
2013-09-11 02:32:00,74.5,69.3,30.00,South,175,0.0,0.0,84,0.00,,CLR,0.00,VWS V14.01,2013-09-11 07:32:00,
2013-09-11 02:33:00,74.5,69.3,30.00,South,175,0.0,0.0,84,0.00,,CLR,0.00,VWS V14.01,2013-09-11 07:33:00,
2013-09-11 02:35:00,74.5,69.3,30.00,South,175,0.0,0.0,84,0.00,,CLR,0.00,VWS V14.01,2013-09-11 07:35:00,
2013-09-11 02:37:00,74.3,69.2,30.00,South,175,0.0,0.0,84,0.00,,CLR,0.00,VWS V14.01,2013-09-11 07:37:00,
2013-09-11 02:38:00,74.3,69.2,30.00,South,175,0.0,0.0,84,0.00,,CLR,0.00,VWS V14.01,2013-09-11 07:38:00,
2013-09-11 02:40:00,74.3,69.2,30.00,South,175,0.0,0.0,84,0.00,,CLR,0.00,VWS V14.01,2013-09-11 07:40:00,
2013-09-11 02:42:00,74.3,69.2,30.00,South,175,0.0,0.0,84,0.00,,CLR,0.00,VWS V14.01,2013-09-11 07:42:00,
2013-09-11 02:43:00,74.3,69.2,30.00,South,175,0.0,0.0,84,0.00,,CLR,0.00,VWS V14.01,2013-09-11 07:43:00,
2013-09-11 02:45:00,74.3,69.2,30.00,South,176,0.0,2.0,84,0.00,,CLR,0.00,VWS V14.01,2013-09-11 07:45:00,
2013-09-11 02:47:00,74.3,69.2,30.00,South,176,0.0,2.0,84,0.00,,CLR,0.00,VWS V14.01,2013-09-11 07:47:00,
2013-09-11 02:49:00,74.3,69.2,30.00,South,176,0.0,2.0,84,0.00,,CLR,0.00,VWS V14.01,2013-09-11 07:49:00,
2013-09-11 02:50:00,74.3,69.2,30.00,South,176,0.0,2.0,84,0.00,,CLR,0.00,VWS V14.01,2013-09-11 07:50:00,
2013-09-11 02:52:00,74.3,68.8,30.00,South,176,0.0,2.0,83,0.00,,CLR,0.00,VWS V14.01,2013-09-11 07:52:00,
2013-09-11 02:53:00,74.3,68.8,30.00,South,176,0.0,2.0,83,0.00,,CLR,0.00,VWS V14.01,2013-09-11 07:53:00,
2013-09-11 02:54:00,74.3,69.2,30.00,South,176,0.0,2.0,84,0.00,,CLR,0.00,VWS V14.01,2013-09-11 07:54:00,
2013-09-11 02:55:00,74.3,69.2,30.00,South,176,0.0,2.0,84,0.00,,CLR,0.00,VWS V14.01,2013-09-11 07:55:00,
2013-09-11 02:57:00,74.1,69.0,30.00,South,176,0.0,2.0,84,0.00,,CLR,0.00,VWS V14.01,2013-09-11 07:57:00,
2013-09-11 02:58:00,74.1,69.0,30.00,South,176,0.0,2.0,84,0.00,,CLR,0.00,VWS V14.01,2013-09-11 07:58:00,
2013-09-11 02:59:00,74.1,69.0,30.00,South,176,0.0,2.0,84,0.00,,CLR,0.00,VWS V14.01,2013-09-11 07:59:00,
2013-09-11 03:00:00,74.1,69.0,30.00,South,176,0.0,2.0,84,0.00,,CLR,0.00,VWS V14.01,2013-09-11 08:00:00,
2013-09-11 03:30:00,74.2,68.0,30.00,North,0,0.0,0.0,81,0.00,,,0.00,VWS V14.01,2013-09-11 08:30:00,
2013-09-11 04:00:00,74.0,68.2,30.00,South,180,0.0,1.0,82,0.00,,,0.00,VWS V14.01,2013-09-11 09:00:00,
2013-09-11 04:30:00,74.1,67.9,30.00,South,180,0.0,2.0,81,0.00,,,0.00,VWS V14.01,2013-09-11 09:30:00,
2013-09-11 05:00:00,73.4,67.6,30.01,South,180,0.0,0.0,82,0.00,,,0.00,VWS V14.01,2013-09-11 10:00:00,
2013-09-11 05:30:00,72.4,67.6,30.02,South,180,0.0,0.0,85,0.00,,,0.00,VWS V14.01,2013-09-11 10:30:00,
2013-09-11 06:00:00,71.5,67.4,30.03,South,180,0.0,0.0,87,0.00,,,0.00,VWS V14.01,2013-09-11 11:00:00,
2013-09-11 06:30:00,70.7,67.3,30.04,South,180,0.0,0.0,89,0.00,,,0.00,VWS V14.01,2013-09-11 11:30:00,
2013-09-11 07:00:00,70.4,67.0,30.04,South,180,0.0,0.0,89,0.00,,,0.00,VWS V14.01,2013-09-11 12:00:00,
2013-09-11 07:30:00,70.6,67.2,30.05,South,180,0.0,0.0,89,0.00,,,0.00,VWS V14.01,2013-09-11 12:30:00,
2013-09-11 08:00:00,72.6,66.8,30.05,South,180,0.0,4.0,82,0.00,,,0.00,VWS V14.01,2013-09-11 13:00:00,
2013-09-11 08:30:00,74.4,66.7,30.05,South,180,0.0,4.0,77,0.00,,,0.00,VWS V14.01,2013-09-11 13:30:00,
2013-09-11 09:00:00,77.0,66.5,30.05,South,180,0.0,1.0,70,0.00,,,0.00,VWS V14.01,2013-09-11 14:00:00,
2013-09-11 09:30:00,79.7,67.3,30.05,South,180,0.0,1.0,66,0.00,,,0.00,VWS V14.01,2013-09-11 14:30:00,
2013-09-11 10:00:00,77.0,66.5,30.05,South,180,0.0,1.0,70,0.00,,CLR,0.00,VWS V14.01,2013-09-11 15:00:00,
2013-09-11 10:06:00,79.7,67.3,30.05,South,180,0.0,1.0,66,0.00,,,0.00,VWS V14.01,2013-09-11 15:06:00,
2013-09-11 10:07:00,83.9,69.5,30.05,South,188,0.0,0.0,62,0.00,,,0.00,VWS V14.01,2013-09-11 15:07:00,
2013-09-11 10:11:00,84.2,68.3,30.05,South,188,0.0,0.0,59,0.00,,,0.00,VWS V14.01,2013-09-11 15:11:00,
2013-09-11 10:12:00,84.2,68.3,30.05,South,188,0.0,0.0,59,0.00,,,0.00,VWS V14.01,2013-09-11 15:12:00,
2013-09-11 10:16:00,84.4,69.0,30.05,South,188,0.0,1.0,60,0.00,,,0.00,VWS V14.01,2013-09-11 15:16:00,
2013-09-11 10:17:00,84.4,69.0,30.05,South,188,0.0,1.0,60,0.00,,,0.00,VWS V14.01,2013-09-11 15:17:00,
2013-09-11 10:21:00,84.8,68.4,30.05,South,189,0.0,1.0,58,0.00,,,0.00,VWS V14.01,2013-09-11 15:21:00,
2013-09-11 10:22:00,84.8,68.4,30.05,South,189,0.0,1.0,58,0.00,,,0.00,VWS V14.01,2013-09-11 15:22:00,
2013-09-11 10:23:00,85.0,68.6,30.05,South,189,0.0,1.0,58,0.00,,,0.00,VWS V14.01,2013-09-11 15:23:00,
2013-09-11 10:26:00,85.2,68.8,30.05,South,188,0.0,1.0,58,0.00,,,0.00,VWS V14.01,2013-09-11 15:26:00,
2013-09-11 10:27:00,85.4,69.0,30.05,South,188,0.0,1.0,58,0.00,,,0.00,VWS V14.01,2013-09-11 15:27:00,
2013-09-11 10:28:00,85.4,69.0,30.05,South,188,0.0,1.0,58,0.00,,,0.00,VWS V14.01,2013-09-11 15:28:00,
2013-09-11 10:30:00,85.6,68.6,30.04,South,188,0.0,1.0,57,0.00,,,0.00,VWS V14.01,2013-09-11 15:30:00,
2013-09-11 10:31:00,85.6,68.6,30.04,South,188,0.0,0.0,57,0.00,,CLR,0.00,VWS V14.01,2013-09-11 15:31:00,
2013-09-11 10:32:00,85.6,68.6,30.04,South,188,0.0,0.0,57,0.00,,CLR,0.00,VWS V14.01,2013-09-11 15:32:00,
2013-09-11 10:33:00,85.6,68.6,30.04,South,188,0.0,0.0,57,0.00,,CLR,0.00,VWS V14.01,2013-09-11 15:33:00,
2013-09-11 10:36:00,86.0,69.0,30.04,South,188,0.0,0.0,57,0.00,,CLR,0.00,VWS V14.01,2013-09-11 15:36:00,
2013-09-11 10:37:00,86.0,68.5,30.04,South,188,0.0,0.0,56,0.00,,CLR,0.00,VWS V14.01,2013-09-11 15:37:00,
2013-09-11 10:38:00,86.0,68.5,30.04,South,188,0.0,0.0,56,0.00,,CLR,0.00,VWS V14.01,2013-09-11 15:38:00,
2013-09-11 10:39:00,86.2,68.2,30.04,South,188,0.0,0.0,55,0.00,,CLR,0.00,VWS V14.01,2013-09-11 15:39:00,
2013-09-11 10:40:00,86.2,68.2,30.04,South,188,0.0,0.0,55,0.00,,CLR,0.00,VWS V14.01,2013-09-11 15:40:00,
2013-09-11 10:41:00,86.0,68.5,30.04,South,188,0.0,0.0,56,0.00,,CLR,0.00,VWS V14.01,2013-09-11 15:41:00,
2013-09-11 10:42:00,86.0,69.0,30.04,South,188,0.0,0.0,57,0.00,,CLR,0.00,VWS V14.01,2013-09-11 15:42:00,
2013-09-11 10:43:00,86.0,69.0,30.04,South,188,0.0,0.0,57,0.00,,CLR,0.00,VWS V14.01,2013-09-11 15:43:00,
2013-09-11 10:44:00,86.0,69.0,30.04,South,188,0.0,0.0,57,0.00,,CLR,0.00,VWS V14.01,2013-09-11 15:44:00,
2013-09-11 10:45:00,86.0,68.5,30.04,South,188,0.0,0.0,56,0.00,,CLR,0.00,VWS V14.01,2013-09-11 15:45:00,
2013-09-11 10:46:00,86.2,69.7,30.04,South,189,0.0,0.0,58,0.00,,CLR,0.00,VWS V14.01,2013-09-11 15:46:00,
2013-09-11 10:47:00,86.2,69.2,30.04,South,189,0.0,1.0,57,0.00,,CLR,0.00,VWS V14.01,2013-09-11 15:47:00,
2013-09-11 10:48:00,86.2,69.2,30.04,South,189,0.0,1.0,57,0.00,,CLR,0.00,VWS V14.01,2013-09-11 15:48:00,
2013-09-11 10:49:00,86.4,69.4,30.04,South,189,0.0,1.0,57,0.00,,CLR,0.00,VWS V14.01,2013-09-11 15:49:00,
2013-09-11 10:51:00,86.4,68.9,30.04,South,190,0.0,1.0,56,0.00,,CLR,0.00,VWS V14.01,2013-09-11 15:51:00,
2013-09-11 10:52:00,86.6,68.5,30.04,South,190,0.0,1.0,55,0.00,,CLR,0.00,VWS V14.01,2013-09-11 15:52:00,
2013-09-11 10:54:00,86.9,69.3,30.04,South,190,0.0,1.0,56,0.00,,CLR,0.00,VWS V14.01,2013-09-11 15:54:00,
2013-09-11 10:55:00,87.1,69.5,30.04,South,190,0.0,1.0,56,0.00,,CLR,0.00,VWS V14.01,2013-09-11 15:55:00,
2013-09-11 10:56:00,87.1,69.0,30.04,South,190,0.0,1.0,55,0.00,,CLR,0.00,VWS V14.01,2013-09-11 15:56:00,
2013-09-11 10:57:00,87.3,68.6,30.04,South,190,0.0,1.0,54,0.00,,CLR,0.00,VWS V14.01,2013-09-11 15:57:00,
2013-09-11 10:59:00,87.3,69.7,30.04,South,190,0.0,1.0,56,0.00,,CLR,0.00,VWS V14.01,2013-09-11 15:59:00,
2013-09-11 11:00:00,87.5,69.9,30.04,South,189,0.0,1.0,56,0.00,,CLR,0.00,VWS V14.01,2013-09-11 16:00:00,
2013-09-11 11:01:00,87.5,69.9,30.04,South,188,0.0,0.0,56,0.00,,CLR,0.00,VWS V14.01,2013-09-11 16:01:00,
2013-09-11 11:02:00,87.3,69.2,30.04,South,188,0.0,1.0,55,0.00,,CLR,0.00,VWS V14.01,2013-09-11 16:02:00,
2013-09-11 11:03:00,87.3,69.2,30.04,South,188,0.0,1.0,55,0.00,,CLR,0.00,VWS V14.01,2013-09-11 16:03:00,
2013-09-11 11:04:00,87.3,67.5,30.04,SSW,208,0.0,1.0,52,0.00,,CLR,0.00,VWS V14.01,2013-09-11 16:04:00,
2013-09-11 11:06:00,87.3,67.5,30.04,SSW,209,0.0,1.0,52,0.00,,CLR,0.00,VWS V14.01,2013-09-11 16:06:00,
2013-09-11 11:07:00,87.3,67.5,30.04,SSW,208,0.0,1.0,52,0.00,,CLR,0.00,VWS V14.01,2013-09-11 16:07:00,
2013-09-11 11:08:00,87.3,67.0,30.04,SSW,208,0.0,1.0,51,0.00,,CLR,0.00,VWS V14.01,2013-09-11 16:08:00,
2013-09-11 11:09:00,87.5,68.3,30.04,SSW,208,0.0,1.0,53,0.00,,CLR,0.00,VWS V14.01,2013-09-11 16:09:00,
2013-09-11 11:12:00,88.1,68.8,30.04,SSW,208,0.0,1.0,53,0.00,,CLR,0.00,VWS V14.01,2013-09-11 16:12:00,
2013-09-11 11:13:00,88.1,67.7,30.04,SSW,196,0.0,1.0,51,0.00,,CLR,0.00,VWS V14.01,2013-09-11 16:13:00,
2013-09-11 11:14:00,88.3,67.9,30.04,WSW,238,0.0,1.0,51,0.00,,CLR,0.00,VWS V14.01,2013-09-11 16:14:00,
2013-09-11 11:17:00,88.5,68.1,30.04,WSW,237,0.0,1.0,51,0.00,,CLR,0.00,VWS V14.01,2013-09-11 16:17:00,
2013-09-11 11:18:00,88.5,68.1,30.04,WSW,237,0.0,1.0,51,0.00,,CLR,0.00,VWS V14.01,2013-09-11 16:18:00,
2013-09-11 11:19:00,88.7,68.8,30.04,WSW,238,0.0,1.0,52,0.00,,CLR,0.00,VWS V14.01,2013-09-11 16:19:00,
2013-09-11 11:22:00,89.2,69.8,30.04,West,265,0.0,1.0,53,0.00,,CLR,0.00,VWS V14.01,2013-09-11 16:22:00,
2013-09-11 11:23:00,89.2,67.6,30.04,West,265,0.0,1.0,49,0.00,,CLR,0.00,VWS V14.01,2013-09-11 16:23:00,
2013-09-11 11:24:00,89.2,67.6,30.04,West,265,0.0,1.0,49,0.00,,CLR,0.00,VWS V14.01,2013-09-11 16:24:00,
2013-09-11 11:25:00,89.4,68.3,30.04,SW,236,0.0,1.0,50,0.00,,CLR,0.00,VWS V14.01,2013-09-11 16:25:00,
2013-09-11 11:27:00,89.4,68.3,30.04,SW,236,0.0,1.0,50,0.00,,CLR,0.00,VWS V14.01,2013-09-11 16:27:00,
2013-09-11 11:28:00,89.4,68.3,30.04,SW,236,0.0,1.0,50,0.00,,CLR,0.00,VWS V14.01,2013-09-11 16:28:00,
2013-09-11 11:29:00,89.4,68.9,30.04,SW,236,0.0,1.0,51,0.00,,CLR,0.00,VWS V14.01,2013-09-11 16:29:00,
2013-09-11 11:30:00,89.2,68.2,30.03,SSE,161,0.0,1.0,50,0.00,,CLR,0.00,VWS V14.01,2013-09-11 16:30:00,
2013-09-11 11:32:00,89.2,68.2,30.03,SSE,163,1.0,1.0,50,0.00,,CLR,0.00,VWS V14.01,2013-09-11 16:32:00,
2013-09-11 11:33:00,89.2,68.2,30.03,South,176,0.0,1.0,50,0.00,,CLR,0.00,VWS V14.01,2013-09-11 16:33:00,
2013-09-11 11:34:00,89.2,68.2,30.03,South,188,0.0,1.0,50,0.00,,CLR,0.00,VWS V14.01,2013-09-11 16:34:00,
2013-09-11 11:35:00,89.2,67.6,30.03,South,188,0.0,1.0,49,0.00,,CLR,0.00,VWS V14.01,2013-09-11 16:35:00,
2013-09-11 11:37:00,89.2,66.3,30.03,West,272,0.0,1.0,47,0.00,,CLR,0.00,VWS V14.01,2013-09-11 16:37:00,
2013-09-11 11:38:00,89.2,66.3,30.03,West,273,0.0,1.0,47,0.00,,CLR,0.00,VWS V14.01,2013-09-11 16:38:00,
2013-09-11 11:39:00,89.2,67.6,30.03,West,273,0.0,1.0,49,0.00,,CLR,0.00,VWS V14.01,2013-09-11 16:39:00,
2013-09-11 11:41:00,89.4,67.1,30.03,NW,318,0.0,4.0,48,0.00,,CLR,0.00,VWS V14.01,2013-09-11 16:41:00,
2013-09-11 11:42:00,89.6,67.9,30.03,NW,309,0.0,4.0,49,0.00,,CLR,0.00,VWS V14.01,2013-09-11 16:42:00,
2013-09-11 11:43:00,89.8,67.5,30.03,WNW,302,0.0,4.0,48,0.00,,CLR,0.00,VWS V14.01,2013-09-11 16:43:00,
2013-09-11 11:44:00,89.8,67.5,30.03,NW,311,0.0,4.0,48,0.00,,CLR,0.00,VWS V14.01,2013-09-11 16:44:00,
2013-09-11 11:45:00,89.8,66.9,30.03,WNW,282,0.0,4.0,47,0.00,,CLR,0.00,VWS V14.01,2013-09-11 16:45:00,
2013-09-11 11:46:00,89.8,66.9,30.03,NW,306,0.0,4.0,47,0.00,,CLR,0.00,VWS V14.01,2013-09-11 16:46:00,
2013-09-11 11:47:00,89.8,66.9,30.03,NW,317,1.0,6.0,47,0.00,,CLR,0.00,VWS V14.01,2013-09-11 16:47:00,
2013-09-11 11:48:00,89.8,66.9,30.03,NW,317,0.0,6.0,47,0.00,,CLR,0.00,VWS V14.01,2013-09-11 16:48:00,
2013-09-11 11:49:00,90.0,67.1,30.03,NW,317,0.0,6.0,47,0.00,,CLR,0.00,VWS V14.01,2013-09-11 16:49:00,
2013-09-11 11:51:00,90.0,67.7,30.03,WSW,257,0.0,6.0,48,0.00,,CLR,0.00,VWS V14.01,2013-09-11 16:51:00,
2013-09-11 11:52:00,90.2,67.9,30.03,WSW,257,0.0,6.0,48,0.00,,CLR,0.00,VWS V14.01,2013-09-11 16:52:00,
2013-09-11 11:54:00,90.4,67.4,30.03,WSW,257,0.0,6.0,47,0.00,,CLR,0.00,VWS V14.01,2013-09-11 16:54:00,
2013-09-11 11:56:00,90.4,66.2,30.03,WSW,257,0.0,6.0,45,0.00,,CLR,0.00,VWS V14.01,2013-09-11 16:56:00,
2013-09-11 11:57:00,90.4,66.2,30.03,WSW,257,0.0,6.0,45,0.00,,CLR,0.00,VWS V14.01,2013-09-11 16:57:00,
2013-09-11 11:59:00,90.6,67.0,30.03,West,261,0.0,6.0,46,0.00,,CLR,0.00,VWS V14.01,2013-09-11 16:59:00,
2013-09-11 12:00:00,90.6,66.4,30.03,SSW,212,0.0,6.0,45,0.00,,,0.00,VWS V14.01,2013-09-11 17:00:00,
2013-09-11 12:01:00,90.6,66.4,30.03,SSW,212,0.0,0.0,45,0.00,,CLR,0.00,VWS V14.01,2013-09-11 17:01:00,
2013-09-11 12:02:00,90.4,66.8,30.03,SSW,212,0.0,1.0,46,0.00,,CLR,0.00,VWS V14.01,2013-09-11 17:02:00,
2013-09-11 12:04:00,90.6,67.0,30.03,SSW,212,0.0,1.0,46,0.00,,CLR,0.00,VWS V14.01,2013-09-11 17:04:00,
2013-09-11 12:06:00,90.6,67.0,30.03,SSW,213,0.0,1.0,46,0.00,,CLR,0.00,VWS V14.01,2013-09-11 17:06:00,
2013-09-11 12:07:00,90.6,66.4,30.03,SSW,213,0.0,1.0,45,0.00,,CLR,0.00,VWS V14.01,2013-09-11 17:07:00,
2013-09-11 12:09:00,90.9,66.6,30.03,SSW,211,0.0,1.0,45,0.00,,CLR,0.00,VWS V14.01,2013-09-11 17:09:00,
2013-09-11 12:11:00,90.9,67.3,30.03,SSW,211,0.0,1.0,46,0.00,,CLR,0.00,VWS V14.01,2013-09-11 17:11:00,
2013-09-11 12:12:00,90.9,66.6,30.03,SSW,210,0.0,1.0,45,0.00,,CLR,0.00,VWS V14.01,2013-09-11 17:12:00,
2013-09-11 12:13:00,90.9,66.6,30.03,SSW,210,0.0,1.0,45,0.00,,CLR,0.00,VWS V14.01,2013-09-11 17:13:00,
2013-09-11 12:14:00,91.1,66.8,30.03,SSW,210,0.0,1.0,45,0.00,,CLR,0.00,VWS V14.01,2013-09-11 17:14:00,
2013-09-11 12:15:00,91.1,66.8,30.03,SW,215,0.0,1.0,45,0.00,,CLR,0.00,VWS V14.01,2013-09-11 17:15:00,
2013-09-11 12:16:00,91.1,66.8,30.03,SW,225,0.0,1.0,45,0.00,,CLR,0.00,VWS V14.01,2013-09-11 17:16:00,
2013-09-11 12:18:00,91.1,65.5,30.03,SW,225,0.0,1.0,43,0.00,,CLR,0.00,VWS V14.01,2013-09-11 17:18:00,
2013-09-11 12:19:00,91.1,66.2,30.03,SW,228,0.0,1.0,44,0.00,,CLR,0.00,VWS V14.01,2013-09-11 17:19:00,
2013-09-11 12:21:00,91.3,67.0,30.03,SW,229,0.0,1.0,45,0.00,,CLR,0.00,VWS V14.01,2013-09-11 17:21:00,
2013-09-11 12:22:00,91.3,66.3,30.03,WSW,237,0.0,1.0,44,0.00,,CLR,0.00,VWS V14.01,2013-09-11 17:22:00,
2013-09-11 12:23:00,91.3,66.3,30.03,WSW,237,0.0,1.0,44,0.00,,CLR,0.00,VWS V14.01,2013-09-11 17:23:00,
2013-09-11 12:24:00,91.5,64.5,30.03,WNW,296,0.0,1.0,41,0.00,,CLR,0.00,VWS V14.01,2013-09-11 17:24:00,
2013-09-11 12:27:00,92.0,66.3,30.03,WNW,296,0.0,1.0,43,0.00,,CLR,0.00,VWS V14.01,2013-09-11 17:27:00,
2013-09-11 12:28:00,92.0,66.3,30.03,WNW,286,0.0,1.0,43,0.00,,CLR,0.00,VWS V14.01,2013-09-11 17:28:00,
2013-09-11 12:30:00,92.2,66.5,30.03,WSW,239,1.0,1.0,43,0.00,,CLR,0.00,VWS V14.01,2013-09-11 17:30:00,
2013-09-11 12:32:00,92.4,66.7,30.03,SW,226,0.0,1.0,43,0.00,,CLR,0.00,VWS V14.01,2013-09-11 17:32:00,
2013-09-11 12:33:00,92.4,67.3,30.03,SSW,205,5.0,5.0,44,0.00,,CLR,0.00,VWS V14.01,2013-09-11 17:33:00,
2013-09-11 12:35:00,92.0,64.9,30.03,South,190,0.0,6.0,41,0.00,,CLR,0.00,VWS V14.01,2013-09-11 17:35:00,
2013-09-11 12:37:00,91.7,64.7,30.03,SSW,196,0.0,6.0,41,0.00,,CLR,0.00,VWS V14.01,2013-09-11 17:37:00,
2013-09-11 12:38:00,91.7,65.4,30.03,NNW,330,0.0,6.0,42,0.00,,CLR,0.00,VWS V14.01,2013-09-11 17:38:00,
2013-09-11 12:40:00,92.0,64.9,30.03,NNW,330,0.0,6.0,41,0.00,,CLR,0.00,VWS V14.01,2013-09-11 17:40:00,
2013-09-11 12:42:00,92.2,65.8,30.03,NNW,327,0.0,6.0,42,0.00,,CLR,0.00,VWS V14.01,2013-09-11 17:42:00,
2013-09-11 12:43:00,92.2,66.5,30.03,SSW,213,0.0,6.0,43,0.00,,CLR,0.00,VWS V14.01,2013-09-11 17:43:00,
2013-09-11 12:44:00,92.2,65.1,30.03,SW,221,0.0,6.0,41,0.00,,CLR,0.00,VWS V14.01,2013-09-11 17:44:00,
2013-09-11 12:45:00,92.2,65.1,30.02,SSW,198,1.0,6.0,41,0.00,,CLR,0.00,VWS V14.01,2013-09-11 17:45:00,
2013-09-11 12:47:00,92.0,64.9,30.02,SSW,200,0.0,6.0,41,0.00,,CLR,0.00,VWS V14.01,2013-09-11 17:47:00,
2013-09-11 12:48:00,91.7,64.7,30.02,SSW,200,0.0,6.0,41,0.00,,CLR,0.00,VWS V14.01,2013-09-11 17:48:00,
2013-09-11 12:49:00,91.7,65.4,30.02,SSW,200,0.0,6.0,42,0.00,,CLR,0.00,VWS V14.01,2013-09-11 17:49:00,
2013-09-11 12:50:00,91.7,65.4,30.02,SSW,200,0.0,6.0,42,0.00,,CLR,0.00,VWS V14.01,2013-09-11 17:50:00,
2013-09-11 12:52:00,91.7,66.1,30.02,WSW,258,0.0,6.0,43,0.00,,CLR,0.00,VWS V14.01,2013-09-11 17:52:00,
2013-09-11 12:53:00,91.7,66.1,30.02,WSW,257,0.0,6.0,43,0.00,,CLR,0.00,VWS V14.01,2013-09-11 17:53:00,
2013-09-11 12:54:00,92.0,66.3,30.02,South,188,0.0,6.0,43,0.00,,CLR,0.00,VWS V14.01,2013-09-11 17:54:00,
2013-09-11 12:55:00,92.0,64.9,30.02,East,83,0.0,6.0,41,0.00,,CLR,0.00,VWS V14.01,2013-09-11 17:55:00,
2013-09-11 12:57:00,92.2,65.1,30.02,South,177,0.0,6.0,41,0.00,,CLR,0.00,VWS V14.01,2013-09-11 17:57:00,
2013-09-11 12:58:00,92.2,65.8,30.02,South,178,0.0,6.0,42,0.00,,CLR,0.00,VWS V14.01,2013-09-11 17:58:00,
2013-09-11 12:59:00,92.2,65.1,30.02,South,178,0.0,6.0,41,0.00,,CLR,0.00,VWS V14.01,2013-09-11 17:59:00,
2013-09-11 13:00:00,92.2,66.5,30.02,South,178,0.0,6.0,43,0.00,,CLR,0.00,VWS V14.01,2013-09-11 18:00:00,
2013-09-11 13:02:00,92.6,65.5,30.02,NNE,14,0.0,0.0,41,0.00,,CLR,0.00,VWS V14.01,2013-09-11 18:02:00,
2013-09-11 13:03:00,92.6,66.2,30.02,South,171,0.0,0.0,42,0.00,,CLR,0.00,VWS V14.01,2013-09-11 18:03:00,
2013-09-11 13:05:00,92.6,64.8,30.02,South,172,0.0,0.0,40,0.00,,CLR,0.00,VWS V14.01,2013-09-11 18:05:00,
2013-09-11 13:07:00,92.6,64.8,30.02,South,175,0.0,1.0,40,0.00,,CLR,0.00,VWS V14.01,2013-09-11 18:07:00,
2013-09-11 13:08:00,92.6,64.8,30.02,South,175,0.0,1.0,40,0.00,,CLR,0.00,VWS V14.01,2013-09-11 18:08:00,
2013-09-11 13:10:00,92.6,64.8,30.02,South,177,0.0,1.0,40,0.00,,CLR,0.00,VWS V14.01,2013-09-11 18:10:00,
2013-09-11 13:11:00,92.4,64.6,30.02,SSW,200,0.0,1.0,40,0.00,,CLR,0.00,VWS V14.01,2013-09-11 18:11:00,
2013-09-11 13:13:00,92.4,64.6,30.02,South,183,0.0,3.0,40,0.00,,CLR,0.00,VWS V14.01,2013-09-11 18:13:00,
2013-09-11 13:15:00,92.2,64.4,30.02,South,189,0.0,4.0,40,0.00,,CLR,0.00,VWS V14.01,2013-09-11 18:15:00,
2013-09-11 13:16:00,92.0,64.2,30.02,South,190,0.0,4.0,40,0.00,,CLR,0.00,VWS V14.01,2013-09-11 18:16:00,
2013-09-11 13:18:00,92.2,65.8,30.02,South,190,0.0,4.0,42,0.00,,CLR,0.00,VWS V14.01,2013-09-11 18:18:00,
2013-09-11 13:19:00,92.4,66.0,30.02,South,190,0.0,4.0,42,0.00,,CLR,0.00,VWS V14.01,2013-09-11 18:19:00,
2013-09-11 13:20:00,92.4,66.0,30.02,South,190,0.0,4.0,42,0.00,,CLR,0.00,VWS V14.01,2013-09-11 18:20:00,
2013-09-11 13:21:00,92.6,66.2,30.02,South,190,0.0,4.0,42,0.00,,CLR,0.00,VWS V14.01,2013-09-11 18:21:00,
2013-09-11 13:22:00,92.8,66.4,30.02,NNW,331,0.0,4.0,42,0.00,,CLR,0.00,VWS V14.01,2013-09-11 18:22:00,
2013-09-11 13:23:00,93.1,64.5,30.02,WNW,299,0.0,4.0,39,0.00,,CLR,0.00,VWS V14.01,2013-09-11 18:23:00,
2013-09-11 13:24:00,93.1,64.5,30.02,NW,325,0.0,4.0,39,0.00,,CLR,0.00,VWS V14.01,2013-09-11 18:24:00,
2013-09-11 13:25:00,93.3,64.7,30.02,NW,325,0.0,4.0,39,0.00,,CLR,0.00,VWS V14.01,2013-09-11 18:25:00,
2013-09-11 13:26:00,93.5,66.3,30.02,WSW,243,0.0,4.0,41,0.00,,CLR,0.00,VWS V14.01,2013-09-11 18:26:00,
2013-09-11 13:27:00,93.5,64.8,30.02,WSW,243,0.0,4.0,39,0.00,,CLR,0.00,VWS V14.01,2013-09-11 18:27:00,
2013-09-11 13:28:00,93.5,64.1,30.02,SSW,203,0.0,4.0,38,0.00,,CLR,0.00,VWS V14.01,2013-09-11 18:28:00,
2013-09-11 13:29:00,93.5,64.8,30.02,SSW,207,0.0,4.0,39,0.00,,CLR,0.00,VWS V14.01,2013-09-11 18:29:00,
2013-09-11 13:30:00,93.3,65.4,30.01,SSW,207,0.0,4.0,40,0.00,,,0.00,VWS V14.01,2013-09-11 18:30:00,
2013-09-11 13:31:00,93.3,65.4,30.01,SSW,207,0.0,0.0,40,0.00,,CLR,0.00,VWS V14.01,2013-09-11 18:31:00,
2013-09-11 13:32:00,93.1,65.9,30.01,SSW,207,0.0,1.0,41,0.00,,CLR,0.00,VWS V14.01,2013-09-11 18:32:00,
2013-09-11 13:33:00,93.1,64.5,30.01,SSW,207,0.0,1.0,39,0.00,,CLR,0.00,VWS V14.01,2013-09-11 18:33:00,
2013-09-11 13:35:00,92.8,64.9,30.01,NW,309,0.0,3.0,40,0.00,,CLR,0.00,VWS V14.01,2013-09-11 18:35:00,
2013-09-11 13:36:00,92.8,65.7,30.01,NW,309,0.0,3.0,41,0.00,,CLR,0.00,VWS V14.01,2013-09-11 18:36:00,
2013-09-11 13:38:00,93.1,65.2,30.01,NW,312,0.0,3.0,40,0.00,,CLR,0.00,VWS V14.01,2013-09-11 18:38:00,
2013-09-11 13:40:00,93.1,63.8,30.01,NW,312,0.0,3.0,38,0.00,,CLR,0.00,VWS V14.01,2013-09-11 18:40:00,
2013-09-11 13:41:00,93.3,63.9,30.01,NW,312,0.0,3.0,38,0.00,,CLR,0.00,VWS V14.01,2013-09-11 18:41:00,
2013-09-11 13:43:00,93.3,64.7,30.01,West,273,0.0,3.0,39,0.00,,CLR,0.00,VWS V14.01,2013-09-11 18:43:00,
2013-09-11 13:45:00,93.5,66.3,30.01,WSW,256,0.0,3.0,41,0.00,,CLR,0.00,VWS V14.01,2013-09-11 18:45:00,
2013-09-11 13:46:00,93.5,64.8,30.01,West,273,0.0,3.0,39,0.00,,CLR,0.00,VWS V14.01,2013-09-11 18:46:00,
2013-09-11 13:48:00,93.5,65.6,30.01,West,272,0.0,3.0,40,0.00,,CLR,0.00,VWS V14.01,2013-09-11 18:48:00,
2013-09-11 13:49:00,93.5,65.6,30.01,West,272,0.0,3.0,40,0.00,,CLR,0.00,VWS V14.01,2013-09-11 18:49:00,
2013-09-11 13:51:00,93.5,64.8,30.01,South,190,0.0,4.0,39,0.00,,CLR,0.00,VWS V14.01,2013-09-11 18:51:00,
2013-09-11 13:53:00,93.1,64.5,30.01,South,186,0.0,4.0,39,0.00,,CLR,0.00,VWS V14.01,2013-09-11 18:53:00,
2013-09-11 13:54:00,93.1,64.5,30.01,South,185,0.0,4.0,39,0.00,,CLR,0.00,VWS V14.01,2013-09-11 18:54:00,
2013-09-11 13:56:00,93.1,64.5,30.01,South,190,0.0,4.0,39,0.00,,CLR,0.00,VWS V14.01,2013-09-11 18:56:00,
2013-09-11 13:58:00,93.3,66.1,30.01,NW,321,0.0,4.0,41,0.00,,CLR,0.00,VWS V14.01,2013-09-11 18:58:00,
2013-09-11 13:59:00,93.3,66.1,30.01,NW,321,0.0,4.0,41,0.00,,CLR,0.00,VWS V14.01,2013-09-11 18:59:00,
2013-09-11 14:00:00,93.5,64.8,30.00,WNW,298,0.0,4.0,39,0.00,,,0.00,VWS V14.01,2013-09-11 19:00:00,
2013-09-11 14:01:00,93.7,65.8,30.00,WNW,286,0.0,1.0,40,0.00,,CLR,0.00,VWS V14.01,2013-09-11 19:01:00,
2013-09-11 14:03:00,93.9,65.2,30.00,West,269,0.0,1.0,39,0.00,,CLR,0.00,VWS V14.01,2013-09-11 19:03:00,
2013-09-11 14:04:00,93.9,65.2,30.00,West,267,0.0,1.0,39,0.00,,CLR,0.00,VWS V14.01,2013-09-11 19:04:00,
2013-09-11 14:06:00,94.2,64.7,30.00,West,269,0.0,1.0,38,0.00,,CLR,0.00,VWS V14.01,2013-09-11 19:06:00,
2013-09-11 14:09:00,94.4,65.7,30.00,WSW,258,0.0,1.0,39,0.00,,CLR,0.00,VWS V14.01,2013-09-11 19:09:00,
2013-09-11 14:11:00,94.4,64.9,30.00,WSW,257,0.0,1.0,38,0.00,,CLR,0.00,VWS V14.01,2013-09-11 19:11:00,
2013-09-11 14:12:00,94.4,64.9,30.00,WSW,257,0.0,1.0,38,0.00,,CLR,0.00,VWS V14.01,2013-09-11 19:12:00,
2013-09-11 14:14:00,94.4,64.1,30.00,WSW,243,0.0,1.0,37,0.00,,CLR,0.00,VWS V14.01,2013-09-11 19:14:00,
2013-09-11 14:15:00,94.4,63.4,30.00,SSW,198,2.0,5.0,36,0.00,,CLR,0.00,VWS V14.01,2013-09-11 19:15:00,
2013-09-11 14:16:00,94.2,64.0,30.00,South,186,1.0,5.0,37,0.00,,CLR,0.00,VWS V14.01,2013-09-11 19:16:00,
2013-09-11 14:17:00,94.2,64.0,30.00,South,182,3.0,5.0,37,0.00,,CLR,0.00,VWS V14.01,2013-09-11 19:17:00,
2013-09-11 14:19:00,93.9,62.9,30.00,South,180,0.0,5.0,36,0.00,,CLR,0.00,VWS V14.01,2013-09-11 19:19:00,
2013-09-11 14:20:00,93.7,63.5,30.00,South,181,0.0,5.0,37,0.00,,CLR,0.00,VWS V14.01,2013-09-11 19:20:00,
2013-09-11 14:22:00,93.7,65.0,30.00,South,178,0.0,5.0,39,0.00,,CLR,0.00,VWS V14.01,2013-09-11 19:22:00,
2013-09-11 14:24:00,93.7,65.0,30.00,WSW,246,0.0,5.0,39,0.00,,CLR,0.00,VWS V14.01,2013-09-11 19:24:00,
2013-09-11 14:25:00,93.7,65.0,30.00,NW,304,1.0,5.0,39,0.00,,CLR,0.00,VWS V14.01,2013-09-11 19:25:00,
2013-09-11 14:27:00,93.9,65.2,30.00,WNW,303,0.0,5.0,39,0.00,,CLR,0.00,VWS V14.01,2013-09-11 19:27:00,
2013-09-11 14:28:00,93.9,65.2,30.00,North,5,0.0,5.0,39,0.00,,CLR,0.00,VWS V14.01,2013-09-11 19:28:00,
2013-09-11 14:29:00,93.9,65.2,30.00,North,5,0.0,5.0,39,0.00,,CLR,0.00,VWS V14.01,2013-09-11 19:29:00,
2013-09-11 14:30:00,93.9,64.5,30.00,North,5,0.0,5.0,38,0.00,,CLR,0.00,VWS V14.01,2013-09-11 19:30:00,
2013-09-11 14:32:00,94.2,64.7,30.00,WSW,257,0.0,0.0,38,0.00,,CLR,0.00,VWS V14.01,2013-09-11 19:32:00,
2013-09-11 14:33:00,93.9,63.7,30.00,SSW,200,0.0,2.0,37,0.00,,CLR,0.00,VWS V14.01,2013-09-11 19:33:00,
2013-09-11 14:34:00,93.9,65.2,30.00,SSW,200,0.0,2.0,39,0.00,,CLR,0.00,VWS V14.01,2013-09-11 19:34:00,
2013-09-11 14:36:00,93.9,65.2,30.00,SSW,200,0.0,2.0,39,0.00,,CLR,0.00,VWS V14.01,2013-09-11 19:36:00,
2013-09-11 14:37:00,93.9,65.2,30.00,SSW,197,0.0,2.0,39,0.00,,CLR,0.00,VWS V14.01,2013-09-11 19:37:00,
2013-09-11 14:38:00,93.9,64.5,30.00,SSW,197,0.0,2.0,38,0.00,,CLR,0.00,VWS V14.01,2013-09-11 19:38:00,
2013-09-11 14:39:00,93.9,65.2,30.00,SSW,197,0.0,2.0,39,0.00,,CLR,0.00,VWS V14.01,2013-09-11 19:39:00,
2013-09-11 14:41:00,93.9,64.5,30.00,SSW,197,0.0,2.0,38,0.00,,CLR,0.00,VWS V14.01,2013-09-11 19:41:00,
2013-09-11 14:42:00,94.2,64.7,30.00,SSW,198,1.0,3.0,38,0.00,,CLR,0.00,VWS V14.01,2013-09-11 19:42:00,
2013-09-11 14:44:00,94.2,65.5,30.00,SSW,198,0.0,3.0,39,0.00,,CLR,0.00,VWS V14.01,2013-09-11 19:44:00,
2013-09-11 14:45:00,94.2,64.7,29.99,SSW,198,0.0,3.0,38,0.00,,CLR,0.00,VWS V14.01,2013-09-11 19:45:00,
2013-09-11 14:46:00,93.9,64.5,29.99,SSW,200,0.0,3.0,38,0.00,,CLR,0.00,VWS V14.01,2013-09-11 19:46:00,
2013-09-11 14:47:00,93.9,64.5,29.99,SSW,200,1.0,3.0,38,0.00,,CLR,0.00,VWS V14.01,2013-09-11 19:47:00,
2013-09-11 14:49:00,93.7,64.3,29.99,SSW,198,0.0,4.0,38,0.00,,CLR,0.00,VWS V14.01,2013-09-11 19:49:00,
2013-09-11 14:50:00,93.5,64.8,29.99,SSW,198,0.0,4.0,39,0.00,,CLR,0.00,VWS V14.01,2013-09-11 19:50:00,
2013-09-11 14:51:00,93.3,64.7,29.99,South,185,0.0,4.0,39,0.00,,CLR,0.00,VWS V14.01,2013-09-11 19:51:00,
2013-09-11 14:52:00,93.3,64.7,29.99,South,185,0.0,4.0,39,0.00,,CLR,0.00,VWS V14.01,2013-09-11 19:52:00,
2013-09-11 14:54:00,93.3,65.4,29.99,South,184,0.0,4.0,40,0.00,,CLR,0.00,VWS V14.01,2013-09-11 19:54:00,
2013-09-11 14:55:00,93.3,64.7,29.99,South,184,0.0,4.0,39,0.00,,CLR,0.00,VWS V14.01,2013-09-11 19:55:00,
2013-09-11 14:57:00,93.5,65.6,29.99,South,177,0.0,4.0,40,0.00,,CLR,0.00,VWS V14.01,2013-09-11 19:57:00,
2013-09-11 14:59:00,93.7,65.0,29.99,NNW,331,5.0,7.0,39,0.00,,CLR,0.00,VWS V14.01,2013-09-11 19:59:00,
2013-09-11 15:00:00,93.7,65.0,29.98,NW,323,3.0,7.0,39,0.00,,CLR,0.00,VWS V14.01,2013-09-11 20:00:00,
2013-09-11 15:02:00,93.9,65.2,29.98,West,277,0.0,1.0,39,0.00,,,0.00,VWS V14.01,2013-09-11 20:02:00,
2013-09-11 15:04:00,93.7,65.0,29.98,WNW,283,0.0,1.0,39,0.00,,,0.00,VWS V14.01,2013-09-11 20:04:00,
2013-09-11 15:05:00,93.7,65.0,29.98,WNW,283,0.0,1.0,39,0.00,,,0.00,VWS V14.01,2013-09-11 20:05:00,
2013-09-11 15:06:00,93.7,64.3,29.98,WNW,283,0.0,1.0,38,0.00,,,0.00,VWS V14.01,2013-09-11 20:06:00,
2013-09-11 15:07:00,93.7,65.0,29.98,WNW,303,0.0,3.0,39,0.00,,,0.00,VWS V14.01,2013-09-11 20:07:00,
2013-09-11 15:08:00,93.7,65.0,29.98,WNW,290,1.0,3.0,39,0.00,,,0.00,VWS V14.01,2013-09-11 20:08:00,
2013-09-11 15:10:00,93.5,65.6,29.98,SSW,195,3.0,3.0,40,0.00,,,0.00,VWS V14.01,2013-09-11 20:10:00,
2013-09-11 15:11:00,93.5,65.6,29.98,South,186,0.0,3.0,40,0.00,,,0.00,VWS V14.01,2013-09-11 20:11:00,
2013-09-11 15:12:00,93.5,65.6,29.98,South,187,0.0,3.0,40,0.00,,,0.00,VWS V14.01,2013-09-11 20:12:00,
2013-09-11 15:13:00,93.5,64.8,29.98,South,187,0.0,3.0,39,0.00,,,0.00,VWS V14.01,2013-09-11 20:13:00,
2013-09-11 15:15:00,93.5,64.8,29.98,South,188,0.0,3.0,39,0.00,,,0.00,VWS V14.01,2013-09-11 20:15:00,
2013-09-11 15:16:00,93.5,64.8,29.98,South,188,0.0,3.0,39,0.00,,,0.00,VWS V14.01,2013-09-11 20:16:00,
2013-09-11 15:17:00,93.5,64.8,29.98,South,188,0.0,3.0,39,0.00,,,0.00,VWS V14.01,2013-09-11 20:17:00,
2013-09-11 15:18:00,93.7,65.0,29.98,SSW,192,3.0,4.0,39,0.00,,,0.00,VWS V14.01,2013-09-11 20:18:00,
2013-09-11 15:20:00,93.7,65.0,29.98,South,180,0.0,4.0,39,0.00,,,0.00,VWS V14.01,2013-09-11 20:20:00,
2013-09-11 15:21:00,93.7,65.0,29.98,South,169,0.0,4.0,39,0.00,,,0.00,VWS V14.01,2013-09-11 20:21:00,
2013-09-11 15:22:00,93.5,64.8,29.98,South,169,0.0,4.0,39,0.00,,,0.00,VWS V14.01,2013-09-11 20:22:00,
2013-09-11 15:23:00,93.7,65.8,29.98,South,169,1.0,4.0,40,0.00,,,0.00,VWS V14.01,2013-09-11 20:23:00,
2013-09-11 15:24:00,93.7,65.8,29.98,South,169,0.0,4.0,40,0.00,,,0.00,VWS V14.01,2013-09-11 20:24:00,
2013-09-11 15:25:00,93.5,64.8,29.98,South,169,0.0,4.0,39,0.00,,,0.00,VWS V14.01,2013-09-11 20:25:00,
2013-09-11 15:27:00,93.5,64.8,29.98,South,169,0.0,4.0,39,0.00,,,0.00,VWS V14.01,2013-09-11 20:27:00,
2013-09-11 15:28:00,93.5,65.6,29.98,South,182,1.0,4.0,40,0.00,,,0.00,VWS V14.01,2013-09-11 20:28:00,
2013-09-11 15:29:00,93.3,65.4,29.98,South,187,2.0,4.0,40,0.00,,,0.00,VWS V14.01,2013-09-11 20:29:00,
2013-09-11 15:30:00,93.3,64.7,29.98,South,187,0.0,4.0,39,0.00,,,0.00,VWS V14.01,2013-09-11 20:30:00,
2013-09-11 15:32:00,93.3,65.4,29.98,WNW,292,0.0,0.0,40,0.00,,,0.00,VWS V14.01,2013-09-11 20:32:00,
2013-09-11 15:33:00,93.5,64.8,29.98,WNW,282,0.0,0.0,39,0.00,,,0.00,VWS V14.01,2013-09-11 20:33:00,
2013-09-11 15:34:00,93.5,64.8,29.98,West,281,0.0,0.0,39,0.00,,,0.00,VWS V14.01,2013-09-11 20:34:00,
2013-09-11 15:35:00,93.7,64.3,29.98,West,267,0.0,2.0,38,0.00,,,0.00,VWS V14.01,2013-09-11 20:35:00,
2013-09-11 15:37:00,93.7,64.3,29.98,West,272,0.0,2.0,38,0.00,,,0.00,VWS V14.01,2013-09-11 20:37:00,
2013-09-11 15:38:00,93.7,64.3,29.98,West,273,0.0,2.0,38,0.00,,,0.00,VWS V14.01,2013-09-11 20:38:00,
2013-09-11 15:39:00,93.7,63.5,29.98,West,259,0.0,2.0,37,0.00,,,0.00,VWS V14.01,2013-09-11 20:39:00,
2013-09-11 15:40:00,93.7,63.5,29.98,West,263,0.0,2.0,37,0.00,,,0.00,VWS V14.01,2013-09-11 20:40:00,
2013-09-11 15:42:00,93.7,64.3,29.98,West,260,0.0,2.0,38,0.00,,,0.00,VWS V14.01,2013-09-11 20:42:00,
2013-09-11 15:43:00,93.7,63.5,29.98,West,260,0.0,2.0,37,0.00,,,0.00,VWS V14.01,2013-09-11 20:43:00,
2013-09-11 15:44:00,93.7,64.3,29.98,West,260,0.0,2.0,38,0.00,,,0.00,VWS V14.01,2013-09-11 20:44:00,
2013-09-11 15:45:00,93.7,63.5,29.97,WNW,288,0.0,2.0,37,0.00,,CLR,0.00,VWS V14.01,2013-09-11 20:45:00,
2013-09-11 15:48:00,93.5,63.3,29.97,WSW,246,0.0,3.0,37,0.00,,CLR,0.00,VWS V14.01,2013-09-11 20:48:00,
2013-09-11 15:49:00,93.5,63.3,29.97,WSW,246,0.0,3.0,37,0.00,,CLR,0.00,VWS V14.01,2013-09-11 20:49:00,
2013-09-11 15:50:00,93.3,63.2,29.97,WSW,246,0.0,3.0,37,0.00,,CLR,0.00,VWS V14.01,2013-09-11 20:50:00,
2013-09-11 15:54:00,93.5,64.1,29.97,SW,223,2.0,3.0,38,0.00,,CLR,0.00,VWS V14.01,2013-09-11 20:54:00,
2013-09-11 15:55:00,93.3,64.7,29.97,SW,225,0.0,3.0,39,0.00,,CLR,0.00,VWS V14.01,2013-09-11 20:55:00,
2013-09-11 15:59:00,93.3,64.7,29.97,SSW,202,0.0,3.0,39,0.00,,CLR,0.00,VWS V14.01,2013-09-11 20:59:00,
2013-09-11 16:00:00,93.3,64.7,29.97,WNW,297,2.0,4.0,39,0.00,,CLR,0.00,VWS V14.01,2013-09-11 21:00:00,
2013-09-11 16:01:00,93.3,63.2,29.97,WNW,286,2.0,2.0,37,0.00,,CLR,0.00,VWS V14.01,2013-09-11 21:01:00,
2013-09-11 16:04:00,93.3,64.7,29.97,WNW,282,0.0,2.0,39,0.00,,CLR,0.00,VWS V14.01,2013-09-11 21:04:00,
2013-09-11 16:05:00,93.1,64.5,29.97,WNW,282,0.0,2.0,39,0.00,,CLR,0.00,VWS V14.01,2013-09-11 21:05:00,
2013-09-11 16:06:00,93.1,64.5,29.97,WNW,282,0.0,2.0,39,0.00,,CLR,0.00,VWS V14.01,2013-09-11 21:06:00,
2013-09-11 16:09:00,93.1,65.2,29.97,West,268,0.0,2.0,40,0.00,,CLR,0.00,VWS V14.01,2013-09-11 21:09:00,
2013-09-11 16:10:00,92.8,64.2,29.97,West,265,0.0,2.0,39,0.00,,CLR,0.00,VWS V14.01,2013-09-11 21:10:00,
2013-09-11 16:11:00,92.8,64.2,29.97,West,265,0.0,2.0,39,0.00,,CLR,0.00,VWS V14.01,2013-09-11 21:11:00,
2013-09-11 16:14:00,92.8,64.2,29.97,West,265,0.0,2.0,39,0.00,,CLR,0.00,VWS V14.01,2013-09-11 21:14:00,
2013-09-11 16:16:00,92.6,64.1,29.97,SSW,203,1.0,3.0,39,0.00,,CLR,0.00,VWS V14.01,2013-09-11 21:16:00,
2013-09-11 16:19:00,92.4,63.9,29.97,SSW,193,0.0,3.0,39,0.00,,CLR,0.00,VWS V14.01,2013-09-11 21:19:00,
2013-09-11 16:20:00,92.4,63.9,29.97,SSW,200,2.0,6.0,39,0.00,,CLR,0.00,VWS V14.01,2013-09-11 21:20:00,
2013-09-11 16:21:00,92.4,64.6,29.97,SSW,200,0.0,6.0,40,0.00,,CLR,0.00,VWS V14.01,2013-09-11 21:21:00,
2013-09-11 16:24:00,92.4,63.9,29.97,SSW,200,0.0,6.0,39,0.00,,CLR,0.00,VWS V14.01,2013-09-11 21:24:00,
2013-09-11 16:26:00,92.4,64.6,29.97,SSW,200,0.0,6.0,40,0.00,,CLR,0.00,VWS V14.01,2013-09-11 21:26:00,
2013-09-11 16:28:00,92.4,65.3,29.97,SSW,200,0.0,6.0,41,0.00,,CLR,0.00,VWS V14.01,2013-09-11 21:28:00,
2013-09-11 16:29:00,92.2,64.4,29.97,SW,214,0.0,6.0,40,0.00,,CLR,0.00,VWS V14.01,2013-09-11 21:29:00,
2013-09-11 16:30:00,92.2,63.7,29.96,SW,214,0.0,6.0,39,0.00,,,0.00,VWS V14.01,2013-09-11 21:30:00,
2013-09-11 16:31:00,92.2,63.7,29.96,SW,214,0.0,0.0,39,0.00,,CLR,0.00,VWS V14.01,2013-09-11 21:31:00,
2013-09-11 16:32:00,92.2,64.4,29.96,SW,216,0.0,0.0,40,0.00,,CLR,0.00,VWS V14.01,2013-09-11 21:32:00,
2013-09-11 16:33:00,92.2,64.4,29.96,SW,216,0.0,0.0,40,0.00,,CLR,0.00,VWS V14.01,2013-09-11 21:33:00,
2013-09-11 16:35:00,92.0,65.6,29.96,SW,216,0.0,0.0,42,0.00,,CLR,0.00,VWS V14.01,2013-09-11 21:35:00,
2013-09-11 16:36:00,92.0,64.9,29.96,SW,216,0.0,0.0,41,0.00,,CLR,0.00,VWS V14.01,2013-09-11 21:36:00,
2013-09-11 16:37:00,92.0,64.9,29.96,NNW,334,1.0,3.0,41,0.00,,CLR,0.00,VWS V14.01,2013-09-11 21:37:00,
2013-09-11 16:38:00,92.0,64.2,29.96,NNW,334,0.0,3.0,40,0.00,,CLR,0.00,VWS V14.01,2013-09-11 21:38:00,
2013-09-11 16:40:00,92.0,64.9,29.96,NNW,334,0.0,3.0,41,0.00,,CLR,0.00,VWS V14.01,2013-09-11 21:40:00,
2013-09-11 16:41:00,92.0,64.9,29.96,NNW,334,0.0,3.0,41,0.00,,CLR,0.00,VWS V14.01,2013-09-11 21:41:00,
2013-09-11 16:42:00,92.0,64.9,29.96,NNW,332,0.0,3.0,41,0.00,,CLR,0.00,VWS V14.01,2013-09-11 21:42:00,
2013-09-11 16:43:00,92.0,64.9,29.96,NNW,332,0.0,3.0,41,0.00,,CLR,0.00,VWS V14.01,2013-09-11 21:43:00,
2013-09-11 16:45:00,91.7,65.4,29.95,NNW,332,0.0,3.0,42,0.00,,CLR,0.00,VWS V14.01,2013-09-11 21:45:00,
2013-09-11 16:46:00,91.7,64.7,29.95,West,273,0.0,3.0,41,0.00,,CLR,0.00,VWS V14.01,2013-09-11 21:46:00,
2013-09-11 16:47:00,91.7,64.0,29.95,West,273,0.0,3.0,40,0.00,,CLR,0.00,VWS V14.01,2013-09-11 21:47:00,
2013-09-11 16:48:00,91.7,64.7,29.95,West,273,0.0,3.0,41,0.00,,CLR,0.00,VWS V14.01,2013-09-11 21:48:00,
2013-09-11 16:50:00,91.5,65.2,29.95,NNW,336,0.0,6.0,42,0.00,,CLR,0.00,VWS V14.01,2013-09-11 21:50:00,
2013-09-11 16:51:00,91.5,65.9,29.95,NNW,336,0.0,6.0,43,0.00,,CLR,0.00,VWS V14.01,2013-09-11 21:51:00,
2013-09-11 16:52:00,91.5,65.9,29.95,NNW,336,0.0,6.0,43,0.00,,CLR,0.00,VWS V14.01,2013-09-11 21:52:00,
2013-09-11 16:54:00,91.5,65.2,29.95,NNW,337,0.0,6.0,42,0.00,,CLR,0.00,VWS V14.01,2013-09-11 21:54:00,
2013-09-11 16:56:00,91.5,65.2,29.95,NNW,336,0.0,6.0,42,0.00,,CLR,0.00,VWS V14.01,2013-09-11 21:56:00,
2013-09-11 16:57:00,91.5,65.2,29.95,NNW,336,0.0,6.0,42,0.00,,CLR,0.00,VWS V14.01,2013-09-11 21:57:00,
2013-09-11 16:59:00,91.3,64.3,29.95,NNW,335,0.0,6.0,41,0.00,,CLR,0.00,VWS V14.01,2013-09-11 21:59:00,
2013-09-11 17:00:00,91.3,65.0,29.95,NNW,335,0.0,6.0,42,0.00,,,0.00,VWS V14.01,2013-09-11 22:00:00,
2013-09-11 17:01:00,91.3,65.0,29.95,NNW,335,0.0,0.0,42,0.00,,CLR,0.00,VWS V14.01,2013-09-11 22:01:00,
2013-09-11 17:02:00,91.3,65.0,29.95,NNW,335,0.0,0.0,42,0.00,,CLR,0.00,VWS V14.01,2013-09-11 22:02:00,
2013-09-11 17:04:00,91.3,65.0,29.95,NNW,335,0.0,0.0,42,0.00,,CLR,0.00,VWS V14.01,2013-09-11 22:04:00,
2013-09-11 17:06:00,91.3,65.0,29.95,NW,324,1.0,1.0,42,0.00,,CLR,0.00,VWS V14.01,2013-09-11 22:06:00,
2013-09-11 17:08:00,91.1,65.5,29.95,NW,311,0.0,3.0,43,0.00,,CLR,0.00,VWS V14.01,2013-09-11 22:08:00,
2013-09-11 17:09:00,91.1,65.5,29.95,NW,311,0.0,3.0,43,0.00,,CLR,0.00,VWS V14.01,2013-09-11 22:09:00,
2013-09-11 17:11:00,91.1,65.5,29.95,NW,311,0.0,3.0,43,0.00,,CLR,0.00,VWS V14.01,2013-09-11 22:11:00,
2013-09-11 17:13:00,90.9,64.7,29.95,NW,311,0.0,3.0,42,0.00,,CLR,0.00,VWS V14.01,2013-09-11 22:13:00,
2013-09-11 17:15:00,90.9,65.3,29.96,NW,311,0.0,3.0,43,0.00,,CLR,0.00,VWS V14.01,2013-09-11 22:15:00,
2013-09-11 17:16:00,90.9,65.3,29.96,NW,311,0.0,3.0,43,0.00,,CLR,0.00,VWS V14.01,2013-09-11 22:16:00,
2013-09-11 17:19:00,90.9,65.3,29.96,NW,311,0.0,3.0,43,0.00,,CLR,0.00,VWS V14.01,2013-09-11 22:19:00,
2013-09-11 17:20:00,90.6,65.1,29.96,NW,324,0.0,3.0,43,0.00,,CLR,0.00,VWS V14.01,2013-09-11 22:20:00,
2013-09-11 17:21:00,90.6,65.7,29.96,NW,321,0.0,3.0,44,0.00,,CLR,0.00,VWS V14.01,2013-09-11 22:21:00,
2013-09-11 17:24:00,90.6,66.4,29.96,NW,321,0.0,3.0,45,0.00,,CLR,0.00,VWS V14.01,2013-09-11 22:24:00,
2013-09-11 17:25:00,90.6,66.4,29.96,NW,321,0.0,3.0,45,0.00,,CLR,0.00,VWS V14.01,2013-09-11 22:25:00,
2013-09-11 17:26:00,90.6,66.4,29.96,NW,321,0.0,3.0,45,0.00,,CLR,0.00,VWS V14.01,2013-09-11 22:26:00,
2013-09-11 17:27:00,90.6,66.4,29.96,NW,321,0.0,3.0,45,0.00,,CLR,0.00,VWS V14.01,2013-09-11 22:27:00,
2013-09-11 17:30:00,90.4,66.2,29.96,NW,321,0.0,3.0,45,0.00,,CLR,0.00,VWS V14.01,2013-09-11 22:30:00,
2013-09-11 17:31:00,90.4,66.2,29.96,NW,321,0.0,0.0,45,0.00,,CLR,0.00,VWS V14.01,2013-09-11 22:31:00,
2013-09-11 17:32:00,90.4,66.2,29.96,NW,321,0.0,0.0,45,0.00,,CLR,0.00,VWS V14.01,2013-09-11 22:32:00,
2013-09-11 17:35:00,90.4,66.2,29.96,NW,321,0.0,0.0,45,0.00,,CLR,0.00,VWS V14.01,2013-09-11 22:35:00,
2013-09-11 17:36:00,90.4,66.2,29.96,NW,321,0.0,0.0,45,0.00,,CLR,0.00,VWS V14.01,2013-09-11 22:36:00,
2013-09-11 17:37:00,90.4,66.2,29.96,NW,321,0.0,0.0,45,0.00,,CLR,0.00,VWS V14.01,2013-09-11 22:37:00,
2013-09-11 17:40:00,90.2,65.4,29.96,NW,321,0.0,0.0,44,0.00,,CLR,0.00,VWS V14.01,2013-09-11 22:40:00,
2013-09-11 17:41:00,90.2,66.0,29.96,NW,321,0.0,0.0,45,0.00,,CLR,0.00,VWS V14.01,2013-09-11 22:41:00,
2013-09-11 17:42:00,90.2,66.0,29.96,NW,321,0.0,0.0,45,0.00,,CLR,0.00,VWS V14.01,2013-09-11 22:42:00,
2013-09-11 17:43:00,90.2,66.0,29.96,NW,321,0.0,0.0,45,0.00,,CLR,0.00,VWS V14.01,2013-09-11 22:43:00,
2013-09-11 17:45:00,90.2,66.0,29.96,NW,321,0.0,0.0,45,0.00,,CLR,0.00,VWS V14.01,2013-09-11 22:45:00,
2013-09-11 17:46:00,90.2,66.0,29.96,NW,321,0.0,0.0,45,0.00,,CLR,0.00,VWS V14.01,2013-09-11 22:46:00,
2013-09-11 17:47:00,90.2,66.0,29.96,NW,321,0.0,0.0,45,0.00,,CLR,0.00,VWS V14.01,2013-09-11 22:47:00,
2013-09-11 17:48:00,90.2,66.0,29.96,NW,321,0.0,0.0,45,0.00,,CLR,0.00,VWS V14.01,2013-09-11 22:48:00,
2013-09-11 17:51:00,90.0,65.8,29.96,NW,321,0.0,0.0,45,0.00,,CLR,0.00,VWS V14.01,2013-09-11 22:51:00,
2013-09-11 17:52:00,90.0,65.8,29.96,NW,321,0.0,0.0,45,0.00,,CLR,0.00,VWS V14.01,2013-09-11 22:52:00,
2013-09-11 17:53:00,90.0,65.8,29.96,NW,321,0.0,0.0,45,0.00,,CLR,0.00,VWS V14.01,2013-09-11 22:53:00,
2013-09-11 17:56:00,90.0,65.8,29.96,NW,321,0.0,0.0,45,0.00,,CLR,0.00,VWS V14.01,2013-09-11 22:56:00,
2013-09-11 17:57:00,90.0,66.5,29.96,NW,321,0.0,0.0,46,0.00,,CLR,0.00,VWS V14.01,2013-09-11 22:57:00,
2013-09-11 17:58:00,90.0,66.5,29.96,NW,321,0.0,0.0,46,0.00,,CLR,0.00,VWS V14.01,2013-09-11 22:58:00,
2013-09-11 18:00:00,89.8,66.3,29.95,NW,321,0.0,0.0,46,0.00,,,0.00,VWS V14.01,2013-09-11 23:00:00,
2013-09-11 18:01:00,89.8,66.3,29.95,NW,321,0.0,0.0,46,0.00,,CLR,0.00,VWS V14.01,2013-09-11 23:01:00,
2013-09-11 18:02:00,89.8,66.3,29.95,NW,321,0.0,0.0,46,0.00,,CLR,0.00,VWS V14.01,2013-09-11 23:02:00,
2013-09-11 18:03:00,89.8,66.3,29.95,NW,321,0.0,0.0,46,0.00,,CLR,0.00,VWS V14.01,2013-09-11 23:03:00,
2013-09-11 18:06:00,89.8,66.3,29.95,NW,321,0.0,0.0,46,0.00,,CLR,0.00,VWS V14.01,2013-09-11 23:06:00,
2013-09-11 18:07:00,89.8,66.3,29.95,NW,321,0.0,0.0,46,0.00,,CLR,0.00,VWS V14.01,2013-09-11 23:07:00,
2013-09-11 18:08:00,89.8,66.9,29.95,NW,321,0.0,0.0,47,0.00,,CLR,0.00,VWS V14.01,2013-09-11 23:08:00,
2013-09-11 18:12:00,89.6,66.7,29.95,NW,321,0.0,0.0,47,0.00,,CLR,0.00,VWS V14.01,2013-09-11 23:12:00,
2013-09-11 18:13:00,89.6,66.7,29.95,NW,321,0.0,0.0,47,0.00,,CLR,0.00,VWS V14.01,2013-09-11 23:13:00,
2013-09-11 18:17:00,89.4,67.1,29.96,NW,321,0.0,0.0,48,0.00,,CLR,0.00,VWS V14.01,2013-09-11 23:17:00,
2013-09-11 18:18:00,89.4,67.1,29.96,NW,321,0.0,0.0,48,0.00,,CLR,0.00,VWS V14.01,2013-09-11 23:18:00,
2013-09-11 18:22:00,89.2,67.6,29.96,NW,321,0.0,0.0,49,0.00,,CLR,0.00,VWS V14.01,2013-09-11 23:22:00,
2013-09-11 18:23:00,88.9,66.7,29.96,NW,321,0.0,0.0,48,0.00,,CLR,0.00,VWS V14.01,2013-09-11 23:23:00,
2013-09-11 18:24:00,88.9,67.3,29.96,NW,321,0.0,0.0,49,0.00,,CLR,0.00,VWS V14.01,2013-09-11 23:24:00,
2013-09-11 18:27:00,88.7,67.1,29.96,NW,321,0.0,0.0,49,0.00,,CLR,0.00,VWS V14.01,2013-09-11 23:27:00,
2013-09-11 18:28:00,88.7,67.1,29.96,NW,321,0.0,0.0,49,0.00,,CLR,0.00,VWS V14.01,2013-09-11 23:28:00,
2013-09-11 18:30:00,88.5,66.9,29.95,NW,321,0.0,0.0,49,0.00,,CLR,0.00,VWS V14.01,2013-09-11 23:30:00,
2013-09-11 18:32:00,88.5,67.5,29.95,NW,321,0.0,0.0,50,0.00,,CLR,0.00,VWS V14.01,2013-09-11 23:32:00,
2013-09-11 18:33:00,88.5,67.5,29.95,NW,321,0.0,0.0,50,0.00,,CLR,0.00,VWS V14.01,2013-09-11 23:33:00,
2013-09-11 18:34:00,88.3,67.3,29.95,NW,321,0.0,0.0,50,0.00,,CLR,0.00,VWS V14.01,2013-09-11 23:34:00,
2013-09-11 18:35:00,88.3,67.3,29.95,NW,321,0.0,0.0,50,0.00,,CLR,0.00,VWS V14.01,2013-09-11 23:35:00,
2013-09-11 18:37:00,88.1,67.1,29.95,NW,321,0.0,0.0,50,0.00,,CLR,0.00,VWS V14.01,2013-09-11 23:37:00,
2013-09-11 18:38:00,88.1,67.1,29.95,NW,321,0.0,0.0,50,0.00,,CLR,0.00,VWS V14.01,2013-09-11 23:38:00,
2013-09-11 18:39:00,88.1,67.1,29.95,NW,321,0.0,0.0,50,0.00,,CLR,0.00,VWS V14.01,2013-09-11 23:39:00,
2013-09-11 18:40:00,88.1,67.1,29.95,NW,321,0.0,0.0,50,0.00,,CLR,0.00,VWS V14.01,2013-09-11 23:40:00,
2013-09-11 18:42:00,87.9,67.5,29.95,NW,321,0.0,0.0,51,0.00,,CLR,0.00,VWS V14.01,2013-09-11 23:42:00,
2013-09-11 18:43:00,87.9,67.5,29.95,NW,321,0.0,0.0,51,0.00,,CLR,0.00,VWS V14.01,2013-09-11 23:43:00,
2013-09-11 18:44:00,87.9,67.5,29.95,NW,321,0.0,0.0,51,0.00,,CLR,0.00,VWS V14.01,2013-09-11 23:44:00,
2013-09-11 18:46:00,87.7,68.5,29.95,NW,321,0.0,0.0,53,0.00,,CLR,0.00,VWS V14.01,2013-09-11 23:46:00,
2013-09-11 18:47:00,87.7,68.5,29.95,NW,321,0.0,0.0,53,0.00,,CLR,0.00,VWS V14.01,2013-09-11 23:47:00,
2013-09-11 18:48:00,87.7,68.5,29.95,NW,321,0.0,0.0,53,0.00,,CLR,0.00,VWS V14.01,2013-09-11 23:48:00,
2013-09-11 18:50:00,87.5,68.3,29.95,NW,321,0.0,0.0,53,0.00,,CLR,0.00,VWS V14.01,2013-09-11 23:50:00,
2013-09-11 18:51:00,87.3,68.1,29.95,NW,321,0.0,0.0,53,0.00,,CLR,0.00,VWS V14.01,2013-09-11 23:51:00,
2013-09-11 18:53:00,87.1,67.9,29.95,NW,321,0.0,0.0,53,0.00,,CLR,0.00,VWS V14.01,2013-09-11 23:53:00,
2013-09-11 18:55:00,86.9,68.3,29.95,NW,321,0.0,0.0,54,0.00,,CLR,0.00,VWS V14.01,2013-09-11 23:55:00,
2013-09-11 18:56:00,86.9,68.3,29.95,NW,321,0.0,0.0,54,0.00,,CLR,0.00,VWS V14.01,2013-09-11 23:56:00,
2013-09-11 18:58:00,86.6,68.5,29.95,NW,321,0.0,0.0,55,0.00,,CLR,0.00,VWS V14.01,2013-09-11 23:58:00,
2013-09-11 18:59:00,86.6,69.1,29.95,NW,321,0.0,0.0,56,0.00,,CLR,0.00,VWS V14.01,2013-09-11 23:59:00,
2013-09-11 19:00:00,86.4,68.9,29.96,NW,321,0.0,0.0,56,0.00,,CLR,0.00,VWS V14.01,2013-09-12 00:00:00,
2013-09-11 19:01:00,86.2,68.7,29.96,NW,321,0.0,0.0,56,0.00,,CLR,0.00,VWS V14.01,2013-09-12 00:01:00,
2013-09-11 19:03:00,86.2,69.2,29.96,NW,321,0.0,0.0,57,0.00,,CLR,0.00,VWS V14.01,2013-09-12 00:03:00,
2013-09-11 19:04:00,86.0,69.5,29.96,NW,321,0.0,0.0,58,0.00,,CLR,0.00,VWS V14.01,2013-09-12 00:04:00,
2013-09-11 19:05:00,86.0,69.5,29.96,NW,321,0.0,0.0,58,0.00,,CLR,0.00,VWS V14.01,2013-09-12 00:05:00,
2013-09-11 19:08:00,85.8,69.8,29.96,NW,321,0.0,0.0,59,0.00,,CLR,0.00,VWS V14.01,2013-09-12 00:08:00,
2013-09-11 19:10:00,85.6,69.6,29.96,NW,321,0.0,0.0,59,0.00,,CLR,0.00,VWS V14.01,2013-09-12 00:10:00,
2013-09-11 19:13:00,85.4,69.9,29.96,NW,321,0.0,0.0,60,0.00,,CLR,0.00,VWS V14.01,2013-09-12 00:13:00,
2013-09-11 19:15:00,85.2,70.2,29.95,NW,321,0.0,0.0,61,0.00,,CLR,0.00,VWS V14.01,2013-09-12 00:15:00,
2013-09-11 19:17:00,85.0,70.1,29.95,NW,321,0.0,0.0,61,0.00,,CLR,0.00,VWS V14.01,2013-09-12 00:17:00,
2013-09-11 19:18:00,84.8,69.9,29.95,NW,321,0.0,0.0,61,0.00,,CLR,0.00,VWS V14.01,2013-09-12 00:18:00,
2013-09-11 19:19:00,84.8,69.9,29.95,NW,321,0.0,0.0,61,0.00,,CLR,0.00,VWS V14.01,2013-09-12 00:19:00,
2013-09-11 19:20:00,84.8,69.9,29.95,NW,321,0.0,0.0,61,0.00,,CLR,0.00,VWS V14.01,2013-09-12 00:20:00,
2013-09-11 19:22:00,84.6,69.7,29.95,NW,321,0.0,0.0,61,0.00,,CLR,0.00,VWS V14.01,2013-09-12 00:22:00,
2013-09-11 19:23:00,84.4,69.5,29.95,NW,321,0.0,0.0,61,0.00,,CLR,0.00,VWS V14.01,2013-09-12 00:23:00,
2013-09-11 19:24:00,84.4,69.5,29.95,NW,321,0.0,0.0,61,0.00,,CLR,0.00,VWS V14.01,2013-09-12 00:24:00,
2013-09-11 19:25:00,84.4,70.0,29.95,NW,321,0.0,0.0,62,0.00,,CLR,0.00,VWS V14.01,2013-09-12 00:25:00,
2013-09-11 19:27:00,84.2,69.8,29.95,NW,321,0.0,0.0,62,0.00,,CLR,0.00,VWS V14.01,2013-09-12 00:27:00,
2013-09-11 19:28:00,84.0,70.1,29.95,NW,321,0.0,0.0,63,0.00,,CLR,0.00,VWS V14.01,2013-09-12 00:28:00,
2013-09-11 19:29:00,84.0,69.6,29.95,NW,321,0.0,0.0,62,0.00,,CLR,0.00,VWS V14.01,2013-09-12 00:29:00,
2013-09-11 19:30:00,83.9,70.0,29.96,NW,321,0.0,0.0,63,0.00,,CLR,0.00,VWS V14.01,2013-09-12 00:30:00,
2013-09-11 19:32:00,83.7,69.8,29.96,NW,321,0.0,0.0,63,0.00,,CLR,0.00,VWS V14.01,2013-09-12 00:32:00,
2013-09-11 19:33:00,83.7,69.8,29.96,NW,321,0.0,0.0,63,0.00,,CLR,0.00,VWS V14.01,2013-09-12 00:33:00,
2013-09-11 19:35:00,83.5,70.1,29.96,NW,321,0.0,0.0,64,0.00,,CLR,0.00,VWS V14.01,2013-09-12 00:35:00,
2013-09-11 19:38:00,83.1,69.7,29.96,NW,321,0.0,0.0,64,0.00,,CLR,0.00,VWS V14.01,2013-09-12 00:38:00,
2013-09-11 19:40:00,82.9,69.9,29.96,NW,321,0.0,0.0,65,0.00,,CLR,0.00,VWS V14.01,2013-09-12 00:40:00,
2013-09-11 19:42:00,82.7,69.8,29.96,NW,321,0.0,0.0,65,0.00,,CLR,0.00,VWS V14.01,2013-09-12 00:42:00,
2013-09-11 19:43:00,82.7,69.8,29.96,NW,321,0.0,0.0,65,0.00,,CLR,0.00,VWS V14.01,2013-09-12 00:43:00,
2013-09-11 19:45:00,82.5,69.6,29.96,NW,321,0.0,0.0,65,0.00,,CLR,0.00,VWS V14.01,2013-09-12 00:45:00,
2013-09-11 19:48:00,82.5,69.6,29.96,NW,321,0.0,0.0,65,0.00,,CLR,0.00,VWS V14.01,2013-09-12 00:48:00,
2013-09-11 19:49:00,82.5,69.6,29.96,NW,321,0.0,0.0,65,0.00,,CLR,0.00,VWS V14.01,2013-09-12 00:49:00,
2013-09-11 19:50:00,82.3,69.4,29.96,NW,321,0.0,0.0,65,0.00,,CLR,0.00,VWS V14.01,2013-09-12 00:50:00,
2013-09-11 19:53:00,82.3,69.4,29.96,NW,321,0.0,0.0,65,0.00,,CLR,0.00,VWS V14.01,2013-09-12 00:53:00,
2013-09-11 19:54:00,82.1,69.6,29.96,NW,321,0.0,0.0,66,0.00,,CLR,0.00,VWS V14.01,2013-09-12 00:54:00,
2013-09-11 19:55:00,82.1,69.6,29.96,NW,321,0.0,0.0,66,0.00,,CLR,0.00,VWS V14.01,2013-09-12 00:55:00,
2013-09-11 19:56:00,82.1,69.6,29.96,NW,321,0.0,0.0,66,0.00,,CLR,0.00,VWS V14.01,2013-09-12 00:56:00,
2013-09-11 19:58:00,81.9,69.4,29.96,NW,321,0.0,0.0,66,0.00,,CLR,0.00,VWS V14.01,2013-09-12 00:58:00,
2013-09-11 19:59:00,81.9,69.4,29.96,NW,321,0.0,0.0,66,0.00,,CLR,0.00,VWS V14.01,2013-09-12 00:59:00,
2013-09-11 20:00:00,81.7,69.2,29.96,NW,321,0.0,0.0,66,0.00,,CLR,0.00,VWS V14.01,2013-09-12 01:00:00,
2013-09-11 20:01:00,81.7,69.2,29.96,NW,321,0.0,0.0,66,0.00,,CLR,0.00,VWS V14.01,2013-09-12 01:01:00,
2013-09-11 20:03:00,81.7,69.7,29.96,NW,321,0.0,0.0,67,0.00,,CLR,0.00,VWS V14.01,2013-09-12 01:03:00,
2013-09-11 20:04:00,81.5,69.5,29.96,NW,321,0.0,0.0,67,0.00,,CLR,0.00,VWS V14.01,2013-09-12 01:04:00,
2013-09-11 20:06:00,81.5,69.5,29.96,NW,321,0.0,0.0,67,0.00,,CLR,0.00,VWS V14.01,2013-09-12 01:06:00,
2013-09-11 20:07:00,81.3,68.9,29.96,NW,321,0.0,0.0,66,0.00,,CLR,0.00,VWS V14.01,2013-09-12 01:07:00,
2013-09-11 20:08:00,81.3,68.9,29.96,NW,321,0.0,0.0,66,0.00,,CLR,0.00,VWS V14.01,2013-09-12 01:08:00,
2013-09-11 20:09:00,81.3,68.9,29.96,NW,321,0.0,0.0,66,0.00,,CLR,0.00,VWS V14.01,2013-09-12 01:09:00,
2013-09-11 20:11:00,81.1,69.1,29.96,NW,321,0.0,0.0,67,0.00,,CLR,0.00,VWS V14.01,2013-09-12 01:11:00,
2013-09-11 20:12:00,81.1,68.7,29.96,NW,321,0.0,0.0,66,0.00,,CLR,0.00,VWS V14.01,2013-09-12 01:12:00,
2013-09-11 20:13:00,81.1,68.7,29.96,NW,321,0.0,0.0,66,0.00,,CLR,0.00,VWS V14.01,2013-09-12 01:13:00,
2013-09-11 20:14:00,81.0,69.0,29.96,NW,321,0.0,0.0,67,0.00,,CLR,0.00,VWS V14.01,2013-09-12 01:14:00,
2013-09-11 20:16:00,81.0,69.0,29.96,NW,321,0.0,0.0,67,0.00,,CLR,0.00,VWS V14.01,2013-09-12 01:16:00,
2013-09-11 20:18:00,81.0,69.0,29.96,NW,321,0.0,0.0,67,0.00,,CLR,0.00,VWS V14.01,2013-09-12 01:18:00,
2013-09-11 20:19:00,80.8,68.8,29.96,NW,321,0.0,0.0,67,0.00,,CLR,0.00,VWS V14.01,2013-09-12 01:19:00,
2013-09-11 20:23:00,80.6,68.6,29.96,NW,321,0.0,0.0,67,0.00,,CLR,0.00,VWS V14.01,2013-09-12 01:23:00,
2013-09-11 20:24:00,80.6,68.6,29.96,NW,321,0.0,0.0,67,0.00,,CLR,0.00,VWS V14.01,2013-09-12 01:24:00,
2013-09-11 20:28:00,80.2,68.7,29.96,NW,321,0.0,0.0,68,0.00,,CLR,0.00,VWS V14.01,2013-09-12 01:28:00,
2013-09-11 20:29:00,80.2,68.7,29.96,NW,321,0.0,0.0,68,0.00,,CLR,0.00,VWS V14.01,2013-09-12 01:29:00,
2013-09-11 20:30:00,80.2,68.7,29.96,NW,321,0.0,0.0,68,0.00,,CLR,0.00,VWS V14.01,2013-09-12 01:30:00,
2013-09-11 20:33:00,80.0,68.5,29.96,NW,321,0.0,0.0,68,0.00,,CLR,0.00,VWS V14.01,2013-09-12 01:33:00,
2013-09-11 20:34:00,80.0,68.5,29.96,NW,321,0.0,0.0,68,0.00,,CLR,0.00,VWS V14.01,2013-09-12 01:34:00,
2013-09-11 20:35:00,80.0,68.5,29.96,NW,321,0.0,0.0,68,0.00,,CLR,0.00,VWS V14.01,2013-09-12 01:35:00,
2013-09-11 20:38:00,80.0,68.1,29.96,NW,321,0.0,0.0,67,0.00,,CLR,0.00,VWS V14.01,2013-09-12 01:38:00,
2013-09-11 20:39:00,80.0,68.1,29.96,NW,321,0.0,0.0,67,0.00,,CLR,0.00,VWS V14.01,2013-09-12 01:39:00,
2013-09-11 20:40:00,80.0,68.5,29.96,NW,321,0.0,0.0,68,0.00,,CLR,0.00,VWS V14.01,2013-09-12 01:40:00,
2013-09-11 20:43:00,79.8,68.7,29.96,NW,321,0.0,0.0,69,0.00,,CLR,0.00,VWS V14.01,2013-09-12 01:43:00,
2013-09-11 20:44:00,79.8,68.7,29.96,NW,321,0.0,0.0,69,0.00,,CLR,0.00,VWS V14.01,2013-09-12 01:44:00,
2013-09-11 20:45:00,79.8,68.7,29.96,NW,321,0.0,0.0,69,0.00,,CLR,0.00,VWS V14.01,2013-09-12 01:45:00,
2013-09-11 20:46:00,79.7,68.6,29.96,NW,321,0.0,0.0,69,0.00,,CLR,0.00,VWS V14.01,2013-09-12 01:46:00,
2013-09-11 20:49:00,79.5,68.4,29.96,NW,321,0.0,0.0,69,0.00,,CLR,0.00,VWS V14.01,2013-09-12 01:49:00,
2013-09-11 20:50:00,79.5,68.4,29.96,NW,321,0.0,0.0,69,0.00,,CLR,0.00,VWS V14.01,2013-09-12 01:50:00,
2013-09-11 20:51:00,79.5,68.4,29.96,NW,321,0.0,0.0,69,0.00,,CLR,0.00,VWS V14.01,2013-09-12 01:51:00,
2013-09-11 20:54:00,79.3,68.3,29.96,NW,321,0.0,0.0,69,0.00,,CLR,0.00,VWS V14.01,2013-09-12 01:54:00,
2013-09-11 20:55:00,79.1,68.1,29.96,NW,321,0.0,0.0,69,0.00,,CLR,0.00,VWS V14.01,2013-09-12 01:55:00,
2013-09-11 20:56:00,79.1,68.1,29.96,NW,321,0.0,0.0,69,0.00,,CLR,0.00,VWS V14.01,2013-09-12 01:56:00,
2013-09-11 20:59:00,79.1,68.1,29.96,NW,321,0.0,0.0,69,0.00,,CLR,0.00,VWS V14.01,2013-09-12 01:59:00,
2013-09-11 21:00:00,79.1,68.1,29.97,NW,321,0.0,0.0,69,0.00,,CLR,0.00,VWS V14.01,2013-09-12 02:00:00,
2013-09-11 21:01:00,79.1,68.1,29.97,NW,321,0.0,0.0,69,0.00,,CLR,0.00,VWS V14.01,2013-09-12 02:01:00,
2013-09-11 21:04:00,79.1,67.6,29.97,NW,321,0.0,0.0,68,0.00,,CLR,0.00,VWS V14.01,2013-09-12 02:04:00,
2013-09-11 21:05:00,79.3,67.8,29.97,NW,321,0.0,0.0,68,0.00,,CLR,0.00,VWS V14.01,2013-09-12 02:05:00,
2013-09-11 21:06:00,79.3,67.4,29.97,NW,321,0.0,0.0,67,0.00,,CLR,0.00,VWS V14.01,2013-09-12 02:06:00,
2013-09-11 21:09:00,79.5,68.0,29.97,NW,321,0.0,0.0,68,0.00,,CLR,0.00,VWS V14.01,2013-09-12 02:09:00,
2013-09-11 21:10:00,79.5,68.0,29.97,NW,321,0.0,0.0,68,0.00,,CLR,0.00,VWS V14.01,2013-09-12 02:10:00,
2013-09-11 21:11:00,79.5,67.6,29.97,NW,321,0.0,0.0,67,0.00,,CLR,0.00,VWS V14.01,2013-09-12 02:11:00,
2013-09-11 21:12:00,79.5,67.6,29.97,NW,321,0.0,0.0,67,0.00,,CLR,0.00,VWS V14.01,2013-09-12 02:12:00,
2013-09-11 21:14:00,79.5,67.6,29.97,NW,321,0.0,0.0,67,0.00,,CLR,0.00,VWS V14.01,2013-09-12 02:14:00,
2013-09-11 21:15:00,79.5,67.6,29.96,NW,321,0.0,0.0,67,0.00,,CLR,0.00,VWS V14.01,2013-09-12 02:15:00,
2013-09-11 21:16:00,79.5,68.0,29.96,NW,321,0.0,0.0,68,0.00,,CLR,0.00,VWS V14.01,2013-09-12 02:16:00,
2013-09-11 21:17:00,79.5,68.0,29.96,NW,321,0.0,0.0,68,0.00,,CLR,0.00,VWS V14.01,2013-09-12 02:17:00,
2013-09-11 21:19:00,79.5,68.4,29.96,NW,321,0.0,0.0,69,0.00,,CLR,0.00,VWS V14.01,2013-09-12 02:19:00,
2013-09-11 21:20:00,79.5,68.4,29.96,NW,321,0.0,0.0,69,0.00,,CLR,0.00,VWS V14.01,2013-09-12 02:20:00,
2013-09-11 21:22:00,79.3,68.3,29.96,NW,321,0.0,0.0,69,0.00,,CLR,0.00,VWS V14.01,2013-09-12 02:22:00,
2013-09-11 21:25:00,79.3,68.3,29.96,NW,321,0.0,0.0,69,0.00,,CLR,0.00,VWS V14.01,2013-09-12 02:25:00,
2013-09-11 21:27:00,79.1,68.1,29.96,NW,321,0.0,0.0,69,0.00,,CLR,0.00,VWS V14.01,2013-09-12 02:27:00,
2013-09-11 21:30:00,78.9,68.3,29.96,NW,321,0.0,0.0,70,0.00,,CLR,0.00,VWS V14.01,2013-09-12 02:30:00,
2013-09-11 21:33:00,78.7,68.1,29.96,NW,321,0.0,0.0,70,0.00,,CLR,0.00,VWS V14.01,2013-09-12 02:33:00,
2013-09-11 21:35:00,78.5,67.9,29.96,NW,321,0.0,0.0,70,0.00,,CLR,0.00,VWS V14.01,2013-09-12 02:35:00,
2013-09-11 21:36:00,78.5,68.3,29.96,NW,321,0.0,0.0,71,0.00,,CLR,0.00,VWS V14.01,2013-09-12 02:36:00,
2013-09-11 21:38:00,78.5,68.3,29.96,NW,321,0.0,0.0,71,0.00,,CLR,0.00,VWS V14.01,2013-09-12 02:38:00,
2013-09-11 21:40:00,78.4,68.2,29.96,NW,321,0.0,0.0,71,0.00,,CLR,0.00,VWS V14.01,2013-09-12 02:40:00,
2013-09-11 21:41:00,78.4,67.8,29.96,NW,321,0.0,0.0,70,0.00,,CLR,0.00,VWS V14.01,2013-09-12 02:41:00,
2013-09-11 21:43:00,78.2,67.6,29.96,NW,321,0.0,0.0,70,0.00,,CLR,0.00,VWS V14.01,2013-09-12 02:43:00,
2013-09-11 21:45:00,78.2,67.6,29.96,NW,321,0.0,0.0,70,0.00,,CLR,0.00,VWS V14.01,2013-09-12 02:45:00,
2013-09-11 21:46:00,78.2,67.6,29.96,NW,321,0.0,0.0,70,0.00,,CLR,0.00,VWS V14.01,2013-09-12 02:46:00,
2013-09-11 21:48:00,78.2,67.6,29.96,NW,321,0.0,0.0,70,0.00,,CLR,0.00,VWS V14.01,2013-09-12 02:48:00,
2013-09-11 21:49:00,78.2,67.6,29.96,NW,321,0.0,0.0,70,0.00,,CLR,0.00,VWS V14.01,2013-09-12 02:49:00,
2013-09-11 21:50:00,78.2,67.6,29.96,NW,321,0.0,0.0,70,0.00,,CLR,0.00,VWS V14.01,2013-09-12 02:50:00,
2013-09-11 21:51:00,78.2,67.6,29.96,NW,321,0.0,0.0,70,0.00,,CLR,0.00,VWS V14.01,2013-09-12 02:51:00,
2013-09-11 21:53:00,78.2,67.2,29.96,NW,321,0.0,0.0,69,0.00,,CLR,0.00,VWS V14.01,2013-09-12 02:53:00,
2013-09-11 21:55:00,78.2,67.2,29.96,NW,321,0.0,0.0,69,0.00,,CLR,0.00,VWS V14.01,2013-09-12 02:55:00,
2013-09-11 21:56:00,78.2,66.8,29.96,NW,315,0.0,0.0,68,0.00,,CLR,0.00,VWS V14.01,2013-09-12 02:56:00,
2013-09-11 21:57:00,78.2,66.8,29.96,NW,315,0.0,0.0,68,0.00,,CLR,0.00,VWS V14.01,2013-09-12 02:57:00,
2013-09-11 21:58:00,78.2,66.8,29.96,NW,315,0.0,0.0,68,0.00,,CLR,0.00,VWS V14.01,2013-09-12 02:58:00,
2013-09-11 22:00:00,78.4,66.6,29.96,WSW,242,0.0,0.0,67,0.00,,CLR,0.00,VWS V14.01,2013-09-12 03:00:00,
2013-09-11 22:01:00,78.4,66.6,29.96,WSW,242,0.0,0.0,67,0.00,,CLR,0.00,VWS V14.01,2013-09-12 03:01:00,
2013-09-11 22:02:00,78.4,66.6,29.96,WSW,242,0.0,0.0,67,0.00,,CLR,0.00,VWS V14.01,2013-09-12 03:02:00,
2013-09-11 22:04:00,78.5,66.6,29.96,WSW,242,0.0,0.0,67,0.00,,CLR,0.00,VWS V14.01,2013-09-12 03:04:00,
2013-09-11 22:05:00,78.5,66.6,29.96,WSW,242,0.0,0.0,67,0.00,,CLR,0.00,VWS V14.01,2013-09-12 03:05:00,
2013-09-11 22:06:00,78.5,66.2,29.96,WSW,242,0.0,0.0,66,0.00,,CLR,0.00,VWS V14.01,2013-09-12 03:06:00,
2013-09-11 22:07:00,78.5,66.2,29.96,WSW,242,0.0,0.0,66,0.00,,CLR,0.00,VWS V14.01,2013-09-12 03:07:00,
2013-09-11 22:09:00,78.7,66.4,29.96,WSW,242,0.0,0.0,66,0.00,,CLR,0.00,VWS V14.01,2013-09-12 03:09:00,
2013-09-11 22:10:00,78.7,66.8,29.96,WSW,242,0.0,0.0,67,0.00,,CLR,0.00,VWS V14.01,2013-09-12 03:10:00,
2013-09-11 22:11:00,78.7,66.8,29.96,WSW,242,0.0,0.0,67,0.00,,CLR,0.00,VWS V14.01,2013-09-12 03:11:00,
2013-09-11 22:12:00,78.7,66.8,29.96,WSW,242,0.0,0.0,67,0.00,,CLR,0.00,VWS V14.01,2013-09-12 03:12:00,
2013-09-11 22:14:00,78.5,66.6,29.96,WSW,242,0.0,0.0,67,0.00,,CLR,0.00,VWS V14.01,2013-09-12 03:14:00,
2013-09-11 22:15:00,78.5,66.6,29.95,WSW,242,0.0,0.0,67,0.00,,CLR,0.00,VWS V14.01,2013-09-12 03:15:00,
2013-09-11 22:16:00,78.5,66.6,29.95,WSW,242,0.0,0.0,67,0.00,,CLR,0.00,VWS V14.01,2013-09-12 03:16:00,
2013-09-11 22:17:00,78.5,66.6,29.95,WSW,242,0.0,0.0,67,0.00,,CLR,0.00,VWS V14.01,2013-09-12 03:17:00,
2013-09-11 22:19:00,78.5,66.6,29.95,WSW,242,0.0,0.0,67,0.00,,CLR,0.00,VWS V14.01,2013-09-12 03:19:00,
2013-09-11 22:20:00,78.5,66.6,29.95,WSW,242,0.0,0.0,67,0.00,,CLR,0.00,VWS V14.01,2013-09-12 03:20:00,
2013-09-11 22:22:00,78.4,66.6,29.95,WSW,242,0.0,0.0,67,0.00,,CLR,0.00,VWS V14.01,2013-09-12 03:22:00,
2013-09-11 22:25:00,78.4,67.0,29.95,WSW,242,0.0,0.0,68,0.00,,CLR,0.00,VWS V14.01,2013-09-12 03:25:00,
2013-09-11 22:27:00,78.4,67.0,29.95,WSW,242,0.0,0.0,68,0.00,,CLR,0.00,VWS V14.01,2013-09-12 03:27:00,
2013-09-11 22:28:00,78.2,66.8,29.95,WSW,242,0.0,0.0,68,0.00,,CLR,0.00,VWS V14.01,2013-09-12 03:28:00,
2013-09-11 22:30:00,78.2,66.8,29.95,WSW,242,0.0,0.0,68,0.00,,CLR,0.00,VWS V14.01,2013-09-12 03:30:00,
2013-09-11 22:32:00,78.2,66.8,29.95,WSW,242,0.0,0.0,68,0.00,,CLR,0.00,VWS V14.01,2013-09-12 03:32:00,
2013-09-11 22:33:00,78.2,66.8,29.95,WSW,242,0.0,0.0,68,0.00,,CLR,0.00,VWS V14.01,2013-09-12 03:33:00,
2013-09-11 22:35:00,78.0,67.0,29.95,WSW,242,0.0,0.0,69,0.00,,CLR,0.00,VWS V14.01,2013-09-12 03:35:00,
2013-09-11 22:37:00,78.0,67.0,29.95,WSW,242,0.0,0.0,69,0.00,,CLR,0.00,VWS V14.01,2013-09-12 03:37:00,
2013-09-11 22:38:00,78.0,67.0,29.95,WSW,242,0.0,0.0,69,0.00,,CLR,0.00,VWS V14.01,2013-09-12 03:38:00,
2013-09-11 22:39:00,78.0,67.0,29.95,WSW,242,0.0,0.0,69,0.00,,CLR,0.00,VWS V14.01,2013-09-12 03:39:00,
2013-09-11 22:40:00,77.8,66.8,29.95,WSW,242,0.0,0.0,69,0.00,,CLR,0.00,VWS V14.01,2013-09-12 03:40:00,
2013-09-11 22:42:00,77.8,66.8,29.95,WSW,242,0.0,0.0,69,0.00,,CLR,0.00,VWS V14.01,2013-09-12 03:42:00,
2013-09-11 22:43:00,77.8,66.8,29.95,WSW,242,0.0,0.0,69,0.00,,CLR,0.00,VWS V14.01,2013-09-12 03:43:00,
2013-09-11 22:44:00,77.8,66.8,29.95,WSW,241,0.0,0.0,69,0.00,,CLR,0.00,VWS V14.01,2013-09-12 03:44:00,
2013-09-11 22:45:00,77.8,66.8,29.95,WSW,241,0.0,0.0,69,0.00,,CLR,0.00,VWS V14.01,2013-09-12 03:45:00,
2013-09-11 22:47:00,77.8,66.8,29.95,WSW,240,0.0,1.0,69,0.00,,CLR,0.00,VWS V14.01,2013-09-12 03:47:00,
2013-09-11 22:49:00,77.8,66.8,29.95,WSW,237,0.0,1.0,69,0.00,,CLR,0.00,VWS V14.01,2013-09-12 03:49:00,
2013-09-11 22:50:00,77.8,66.8,29.95,WSW,237,0.0,1.0,69,0.00,,CLR,0.00,VWS V14.01,2013-09-12 03:50:00,
2013-09-11 22:51:00,77.8,66.8,29.95,SW,223,0.0,1.0,69,0.00,,CLR,0.00,VWS V14.01,2013-09-12 03:51:00,
2013-09-11 22:52:00,77.8,66.8,29.95,SW,223,0.0,1.0,69,0.00,,CLR,0.00,VWS V14.01,2013-09-12 03:52:00,
2013-09-11 22:54:00,77.8,66.8,29.95,SW,223,0.0,1.0,69,0.00,,CLR,0.00,VWS V14.01,2013-09-12 03:54:00,
2013-09-11 22:55:00,77.8,66.8,29.95,SW,223,0.0,1.0,69,0.00,,CLR,0.00,VWS V14.01,2013-09-12 03:55:00,
2013-09-11 22:57:00,77.8,66.8,29.95,SW,223,0.0,1.0,69,0.00,,CLR,0.00,VWS V14.01,2013-09-12 03:57:00,
2013-09-11 22:59:00,77.8,66.8,29.95,SW,223,0.0,1.0,69,0.00,,CLR,0.00,VWS V14.01,2013-09-12 03:59:00,
2013-09-11 23:00:00,77.8,66.8,29.95,SW,221,0.0,1.0,69,0.00,,CLR,0.00,VWS V14.01,2013-09-12 04:00:00,
2013-09-11 23:01:00,77.8,66.8,29.95,South,182,2.0,2.0,69,0.00,,CLR,0.00,VWS V14.01,2013-09-12 04:01:00,
2013-09-11 23:02:00,77.8,66.8,29.95,South,182,0.0,0.0,69,0.00,,CLR,0.00,VWS V14.01,2013-09-12 04:02:00,
2013-09-11 23:06:00,77.8,67.2,29.95,South,184,0.0,2.0,70,0.00,,CLR,0.00,VWS V14.01,2013-09-12 04:06:00,
2013-09-11 23:07:00,78.0,67.4,29.95,South,186,0.0,2.0,70,0.00,,CLR,0.00,VWS V14.01,2013-09-12 04:07:00,
2013-09-11 23:11:00,78.0,67.4,29.95,South,183,0.0,3.0,70,0.00,,CLR,0.00,VWS V14.01,2013-09-12 04:11:00,
2013-09-11 23:12:00,78.0,67.4,29.95,South,183,0.0,3.0,70,0.00,,CLR,0.00,VWS V14.01,2013-09-12 04:12:00,
2013-09-11 23:16:00,78.0,67.4,29.94,South,183,1.0,4.0,70,0.00,,CLR,0.00,VWS V14.01,2013-09-12 04:16:00,
2013-09-11 23:17:00,78.0,67.4,29.94,South,183,0.0,4.0,70,0.00,,CLR,0.00,VWS V14.01,2013-09-12 04:17:00,
2013-09-11 23:21:00,78.0,67.4,29.94,South,180,0.0,6.0,70,0.00,,CLR,0.00,VWS V14.01,2013-09-12 04:21:00,
2013-09-11 23:22:00,78.0,67.4,29.94,South,180,0.0,6.0,70,0.00,,CLR,0.00,VWS V14.01,2013-09-12 04:22:00,
2013-09-11 23:23:00,78.0,67.4,29.94,South,178,4.0,6.0,70,0.00,,CLR,0.00,VWS V14.01,2013-09-12 04:23:00,
2013-09-11 23:26:00,78.0,67.4,29.94,South,178,0.0,6.0,70,0.00,,CLR,0.00,VWS V14.01,2013-09-12 04:26:00,
2013-09-11 23:27:00,78.0,67.4,29.94,South,178,1.0,6.0,70,0.00,,CLR,0.00,VWS V14.01,2013-09-12 04:27:00,
2013-09-11 23:28:00,78.0,67.4,29.94,South,178,0.0,6.0,70,0.00,,CLR,0.00,VWS V14.01,2013-09-12 04:28:00,
2013-09-11 23:30:00,78.0,67.4,29.94,South,178,0.0,6.0,70,0.00,,,0.00,VWS V14.01,2013-09-12 04:30:00,
2013-09-11 23:31:00,78.0,67.8,29.94,South,178,0.0,0.0,71,0.00,,CLR,0.00,VWS V14.01,2013-09-12 04:31:00,
2013-09-11 23:32:00,78.0,67.8,29.94,South,180,1.0,3.0,71,0.00,,CLR,0.00,VWS V14.01,2013-09-12 04:32:00,
2013-09-11 23:33:00,77.8,67.7,29.94,SSW,202,0.0,3.0,71,0.00,,CLR,0.00,VWS V14.01,2013-09-12 04:33:00,
2013-09-11 23:36:00,77.8,67.7,29.94,SSW,199,0.0,3.0,71,0.00,,CLR,0.00,VWS V14.01,2013-09-12 04:36:00,
2013-09-11 23:37:00,77.8,67.7,29.94,South,182,3.0,3.0,71,0.00,,CLR,0.00,VWS V14.01,2013-09-12 04:37:00,
2013-09-11 23:38:00,77.8,67.7,29.94,South,183,0.0,3.0,71,0.00,,CLR,0.00,VWS V14.01,2013-09-12 04:38:00,
2013-09-11 23:40:00,77.8,67.7,29.94,South,179,1.0,5.0,71,0.00,,CLR,0.00,VWS V14.01,2013-09-12 04:40:00,
2013-09-11 23:41:00,77.8,67.7,29.94,South,179,0.0,5.0,71,0.00,,CLR,0.00,VWS V14.01,2013-09-12 04:41:00,
2013-09-11 23:42:00,77.8,67.7,29.94,South,179,0.0,5.0,71,0.00,,CLR,0.00,VWS V14.01,2013-09-12 04:42:00,
2013-09-11 23:43:00,77.8,67.7,29.94,SE,130,2.0,5.0,71,0.00,,CLR,0.00,VWS V14.01,2013-09-12 04:43:00,
2013-09-11 23:46:00,77.8,67.7,29.94,South,173,0.0,5.0,71,0.00,,CLR,0.00,VWS V14.01,2013-09-12 04:46:00,
2013-09-11 23:47:00,77.8,67.7,29.94,South,181,2.0,5.0,71,0.00,,CLR,0.00,VWS V14.01,2013-09-12 04:47:00,
2013-09-11 23:48:00,77.8,67.7,29.94,SW,215,0.0,7.0,71,0.00,,CLR,0.00,VWS V14.01,2013-09-12 04:48:00,
2013-09-11 23:49:00,77.8,67.7,29.94,SSW,207,0.0,7.0,71,0.00,,CLR,0.00,VWS V14.01,2013-09-12 04:49:00,
2013-09-11 23:51:00,77.8,67.7,29.94,SSW,202,0.0,7.0,71,0.00,,CLR,0.00,VWS V14.01,2013-09-12 04:51:00,
2013-09-11 23:52:00,77.8,67.7,29.94,SSW,202,0.0,7.0,71,0.00,,CLR,0.00,VWS V14.01,2013-09-12 04:52:00,
2013-09-11 23:53:00,77.8,68.1,29.94,SSW,202,0.0,7.0,72,0.00,,CLR,0.00,VWS V14.01,2013-09-12 04:53:00,
2013-09-11 23:55:00,77.8,68.1,29.94,South,189,0.0,7.0,72,0.00,,CLR,0.00,VWS V14.01,2013-09-12 04:55:00,
2013-09-11 23:56:00,77.8,68.1,29.94,South,189,0.0,7.0,72,0.00,,CLR,0.00,VWS V14.01,2013-09-12 04:56:00,
2013-09-11 23:57:00,77.8,68.1,29.94,South,189,0.0,7.0,72,0.00,,CLR,0.00,VWS V14.01,2013-09-12 04:57:00,
2013-09-11 23:58:00,77.6,67.9,29.94,South,189,0.0,7.0,72,0.00,,CLR,0.00,VWS V14.01,2013-09-12 04:58:00,